     2              OBSERVATION DATA    GPS                 RINEX VERSION / TYPE
srx v1.3 (5/19/93) STARR 93/10/11 17:42:38                  PGM / RUN BY / DATE
                                                            COMMENT
sig: 9 8 7 6 5 4 1 0                                        COMMENT
sig: 9 8 7 6 5 4 1 0                                        COMMENT
sig: 9 8 7 6 5 4 1 0                                        COMMENT
Original Marker Name: sdgp                                  COMMENT
Campaign Name: Baja (Dixon) 1993                            COMMENT
4-Character Station Name: SDGP                              COMMENT
6-Character Antenna Code: DMRCHT                            COMMENT
Vertical Measurement Point: BCR                             COMMENT
Vertical Offset to Rinex Ref. Point: 0.0348                 COMMENT
Radial Measurement Point: ECF                               COMMENT
Radial Offset to Rinex Ref. Point: 0.1897                   COMMENT
Antenna Height from Field Measurement: 1.0700 m             COMMENT
Additional Antenna Identification Info.:                    COMMENT
Turborogue and Ashtech Choke Ring                           COMMENT
Original XYZ: -2493309.0382 -4655182.3466 3565500.9443      COMMENT
New XYZ position is based on association with SCEC monument COMMENT
E1C8S0M0+0011. Position of that monument is believed to be  COMMENT
valid to within 1 m horizontally; vertical accuracy         COMMENT
should be no worse than 3-times this value.                 COMMENT
                                                            COMMENT
Revised Rinex header created by UCSD GPS archive for        COMMENT
GSAC on 10-Nov-2004 (2004:315) 00:14:34 GMT                 COMMENT
For assistance contact dagnew@ucsd.edu                      COMMENT
or anderson@python.ucsd.edu                                 COMMENT
                                                            COMMENT
SDGPS18                                                     MARKER NAME
THE OBSERVER WAS?___JET PROPULSION LABORATORY               OBSERVER / AGENCY
108 TURBOROGUE SNR-8000 100.1                               REC # / TYPE / VERS
108 DORNE-MARGOL. TYPE T                                    ANT # / TYPE
 -2427650.0000 -4778682.0000  3445867.0000                  APPROX POSITION XYZ
        1.0182        0.0000        0.0000                  ANTENNA: DELTA H/E/N
     1     1     0                                          WAVELENGTH FACT L1/2
     4    L1    L2    P1    P2                              # / TYPES OF OBSERV
   120                                                      INTERVAL
  1993     4    14    14     8    0.000000                  TIME OF FIRST OBS
  1993     4    14    22    58    0.000000                  TIME OF LAST OBS
    18                                                      # OF SATELLITES
          01    12    12    12    12                        PRN / # OF OBS
          02   810   810   810   810                        PRN / # OF OBS
          11   641   641   641   641                        PRN / # OF OBS
          12    10    10    10    10                        PRN / # OF OBS
          13   300   300   300   300                        PRN / # OF OBS
          14   704   704   704   704                        PRN / # OF OBS
          15   611   611   611   611                        PRN / # OF OBS
          16   246   246   246   246                        PRN / # OF OBS
          18  1200  1200  1200  1200                        PRN / # OF OBS
          19  1398  1398  1398  1398                        PRN / # OF OBS
          22   643   643   643   643                        PRN / # OF OBS
          24    19    19    19    19                        PRN / # OF OBS
          25   306   306   306   306                        PRN / # OF OBS
          26   492   492   492   492                        PRN / # OF OBS
          27  1151  1151  1151  1151                        PRN / # OF OBS
          28   652   652   652   652                        PRN / # OF OBS
          29   965   965   965   965                        PRN / # OF OBS
                                                            END OF HEADER
 93 04 14 14 08 00.0000000  0  5 29 14 22 25 15
         0.01018         0.27218  22385902.85018  22385903.13518
         0.38218        -0.34618  21342824.73118  21342825.57618
         0.03618         0.13318  22861026.06118  22861027.73418
         0.14918        -0.45918  21123613.52218  21123613.81218
         0.18418        -0.03218  21603729.50318  21603730.82618
 93 04 14 14 10 00.0000000  0  5 29 14 22 25 15
   -176079.39208   -137204.45108  22352396.10008  22352396.31908
   -254972.23608   -198680.33408  21294305.07708  21294305.88808
   -294674.08308   -229615.93108  22804951.31708  22804952.92408
    257475.61708    200629.70308  21172609.47808  21172609.85708
    286791.14308    223473.32808  21658304.08908  21658305.37708
 93 04 14 14 12 00.0000000  0  5 29 14 22 25 15
   -399810.33408   -311540.22708  22309821.47808  22309821.71108
   -555009.03908   -432475.26208  21237209.90608  21237210.79508
   -634582.09208   -494479.17608  22740268.86008  22740270.42108
    471591.07208    367472.83308  21213354.28108  21213354.74208
    531353.17408    414041.04308  21704842.74108  21704844.09008
 93 04 14 14 14 00.0000000  0  5 29 14 22 25 15
   -620187.86208   -483262.96708  22267885.07908  22267885.22308
   -849665.19108   -662077.47308  21181138.69508  21181139.62608
   -969187.01108   -755210.13608  22676595.58308  22676597.08908
    692849.16108    539881.66108  21255458.44208  21255458.79708
    783835.36508    610780.30208  21752888.63208  21752889.94508
 93 04 14 14 16 00.0000000  0  5 29 14 22 25 15
   -831699.49708   -648077.20908  22227635.54908  22227635.93208
  -1132517.79508   -882482.11208  21127313.66408  21127314.61308
  -1292463.91208  -1007114.09408  22615077.85508  22615079.42408
    926720.20808    722118.76908  21299962.77108  21299963.12208
   1049876.32008    818084.82708  21803514.53708  21803516.06008
 93 04 14 14 18 00.0000000  0  5 29 14 22 25 15
  -1036583.05808   -807726.72708  22188647.62508  22188647.80808
  -1405385.67208  -1095106.43508  21075388.67908  21075389.58408
  -1605917.69608  -1251363.69108  22555429.62008  22555431.09008
   1171455.24308    912821.33608  21346534.28008  21346534.69508
   1327583.07008   1034479.57708  21856360.56308  21856361.99908
 93 04 14 14 20 00.0000000  0  5 29 14 22 25 15
  -1236407.10508   -963433.77708  22150622.36708  22150622.49908
  -1670090.57308  -1301369.99808  21025016.90808  21025017.85108
  -1911060.92908  -1489137.55008  22497362.67408  22497364.12908
   1425121.27108   1110483.12008  21394805.35608  21394805.77808
   1615052.55208   1258481.64808  21911064.35408  21911065.74208
 93 04 14 14 22 00.0000000  0  5 29 22 25 15 14
  -1431079.22008  -1115126.33108  22113577.46708  22113577.77308
  -2207836.13008  -1720390.86908  22440888.22108  22440889.66308
   1687409.99508   1314863.89108  21444717.32208  21444717.75608
   1911951.76808   1489831.56408  21967562.38008  21967563.98208
  -1926222.29809  -1500953.17408  20976276.76609  20976277.74608
 93 04 14 14 24 00.0000000  0  5 29 22 25 15 14
  -1622140.12508  -1264004.96308  22077219.81508  22077220.04108
  -2497313.59308  -1945957.63108  22385802.34908  22385803.89808
   1957192.96908   1525084.33408  21496055.35308  21496055.76708
   2216818.33808   1727389.81308  22025576.69408  22025578.26908
  -2175180.63009  -1694946.69508  20928901.56409  20928902.49208
 93 04 14 14 26 00.0000000  0  7 29 22 25 15 18 01 14
  -1809976.75108  -1410371.16508  22041475.67608  22041475.91608
  -2779989.60708  -2166224.54208  22332010.88108  22332012.31208
   2233169.72808   1740131.10808  21548572.06308  21548572.46108
   2528763.30608   1970463.68608  22084937.96808  22084939.54908
        -0.53217        -0.03117  24846525.78717  24846527.62417
        -0.04718        -0.30118  24638081.50118  24638084.57718
  -2417234.09809  -1883559.80008  20882840.35609  20882841.32808
 93 04 14 14 28 00.0000000  0  7 29 22 25 15 18 01 14
  -1994970.76708  -1554522.34208  22006272.47508  22006272.75308
  -3055755.45908  -2381106.91608  22279534.26008  22279535.73208
   2515296.34408   1959969.95708  21602259.03908  21602259.48508
   2847503.80308   2218832.77508  22145592.32708  22145593.99408
   -309711.01408   -241332.94007  24787589.90208  24787591.45707
    276180.46608    215204.96507  24690637.03508  24690640.15907
  -2652531.31209  -2066908.29208  20838064.83509  20838065.81108
 93 04 14 14 30 00.0000000  0  7 29 22 25 15 18 01 14
  -2176925.79008  -1696305.46408  21971647.61108  21971647.94108
  -3324459.32508  -2590486.45208  22228401.44808  22228402.95808
   2803634.17208   2184648.72208  21657127.86508  21657128.38008
   3172800.77408   2472310.80708  22207494.40508  22207496.05808
   -617356.71407   -481056.88307  24729046.93307  24729048.56907
    553496.35508    431294.88907  24743408.68608  24743412.04307
  -2880992.32309  -2244929.86508  20794590.15109  20794591.15408
 93 04 14 14 32 00.0000000  0  7 29 22 25 15 18 01 14
  -2356409.00708  -1836162.50708  21937493.00408  21937493.28408
  -3586410.23008  -2794603.94008  22178553.85508  22178555.28508
   3097154.72308   2413365.97308  21712983.08208  21712983.58008
   3503954.36908   2730352.45408  22270510.99708  22270512.55108
   -923795.09707   -719840.04707  24670733.72507  24670735.62407
    831736.02908    648104.69907  24796356.31808  24796359.61207
  -3102895.97109  -2417841.80308  20752363.18209  20752364.16408
 93 04 14 14 34 00.0000000  0  7 29 22 25 15 18 01 14
  -2533724.53508  -1974330.44408  21903751.04908  21903751.27008
  -3841485.12908  -2993363.47508  22130014.73108  22130016.09408
   3395964.06908   2646204.35108  21769844.75808  21769845.12808
   3840698.61408   2992750.43608  22334591.38908  22334592.98308
  -1228967.82508   -957637.02107  24612661.20508  24612663.13007
   1110884.16108    865622.34307  24849476.76308  24849480.22707
  -3318038.84409  -2585485.60308  20711422.98709  20711423.90908
 93 04 14 14 36 00.0000000  0  7 29 22 25 15 18 14 01
  -2708544.82408  -2110554.04208  21870483.85608  21870484.06908
  -4089410.68008  -3186552.08408  22082835.85308  22082837.31808
   3700002.35108   2883117.20408  21827701.41008  21827701.84508
   4182919.27808   3259415.74908  22399713.85008  22399715.63708
  -1532942.80208  -1194500.66307  24554816.86108  24554818.48107
  -3526390.28109  -2747837.38208  20671775.05809  20671776.04008
   1391077.98708   1083954.83007  24902796.34508  24902799.69707
 93 04 14 14 38 00.0000000  0  7 29 22 25 15 18 14 01
  -2881360.85508  -2245215.87708  21837598.14308  21837598.39408
  -4330621.39008  -3374508.37008  22036934.87808  22036936.23608
   4008220.20108   3123286.85608  21886353.23008  21886353.77808
   4529794.23008   3529707.78208  22465722.08908  22465723.87708
  -1836367.98808  -1430935.88107  24497077.11808  24497078.65707
  -3728135.32709  -2905041.31908  20633384.23909  20633385.26808
   1671450.07107   1302426.17606  24956149.75607  24956153.15306
 93 04 14 14 40 00.0000000  0  6 29 22 25 15 18 14
  -3052367.18708  -2378467.56608  21805056.61808  21805056.95008
  -4564899.07508  -3557062.31008  21992353.36208  21992354.59608
   4320493.83408   3366616.86708  21945776.98308  21945777.63808
   4881160.74308   3803499.72908  22532585.05808  22532586.86108
  -2139236.14808  -1666937.03308  24439442.90208  24439444.87408
  -3923369.60709  -3057171.93308  20596232.41009  20596233.42208
 93 04 14 14 42 00.0000000  0  6 29 22 25 15 18 14
  -3221452.06608  -2510222.02508  21772880.87308  21772881.13208
  -4792076.31708  -3734083.47008  21949122.97308  21949124.24508
   4636913.64308   3613177.66508  22005989.85708  22005990.37608
   5236804.57408   4080624.65008  22600261.84008  22600263.75508
  -2441363.26508  -1902360.74008  24381950.08408  24381951.97808
  -4111584.54609  -3203832.92708  20560416.29209  20560417.26008
 93 04 14 14 44 00.0000000  0  6 29 22 25 15 18 14
  -3388598.72208  -2640466.18308  21741073.88008  21741074.06108
  -5011945.81308  -3905410.29608  21907282.98808  21907284.40908
   4957268.17508   3862804.45808  22066951.50408  22066951.94308
   5596555.53608   4360949.92508  22668720.40708  22668722.23808
  -2742867.48008  -2137299.10908  24324575.97308  24324577.55008
  -4293160.05709  -3345320.34408  20525863.64009  20525864.64208
 93 04 14 14 46 00.0000000  0  6 29 22 25 15 18 14
  -3554443.91408  -2769696.20808  21709514.68708  21709514.92308
  -5224797.85308  -4071268.96708  21866778.57208  21866779.94708
   5281074.29708   4115120.79108  22128569.77608  22128570.28908
   5959749.07808   4643957.73208  22737834.02608  22737835.83408
  -3043851.25908  -2371831.92608  24267300.45108  24267302.32908
  -4468182.45609  -3481701.45208  20492557.96609  20492558.96608
 93 04 14 14 48 00.0000000  0  6 29 22 25 15 18 14
  -3719037.04508  -2897950.60208  21678193.64008  21678193.97508
  -5430715.21508  -4231724.00408  21827593.84808  21827595.12408
   5607850.90808   4369751.79308  22190753.35108  22190753.98108
   6325933.87308   4929296.37308  22807516.60708  22807518.73108
  -3344887.01808  -2606405.25008  24210015.29108  24210017.12208
  -4636265.79209  -3612675.50508  20460572.85309  20460573.81608
 93 04 14 14 50 00.0000000  0  6 29 22 25 15 18 14
  -3881580.31308  -3024607.71508  21647262.77708  21647263.02508
  -5628880.68908  -4386138.57508  21789884.20308  21789885.47008
   5937867.39608   4626907.36508  22253553.48508  22253554.21908
   6695561.69208   5217317.88908  22877854.60608  22877856.73408
  -3645273.32208  -2840472.49708  24152853.90008  24152855.56008
  -4797197.36609  -3738076.76508  20429948.61409  20429949.62108
 93 04 14 14 52 00.0000000  0  6 29 22 25 15 18 14
  -4042409.99708  -3149929.56008  21616657.86708  21616658.12808
  -5819089.32608  -4534353.00908  21753688.60608  21753689.92208
   6271451.66908   4886843.03008  22317032.59608  22317033.19308
   7068474.39708   5507899.05708  22948817.60408  22948819.82408
  -3945188.84908  -3074172.84708  24095781.60208  24095783.35308
  -4950616.83009  -3857624.42608  20400753.89409  20400754.88408
 93 04 14 14 54 00.0000000  0  6 29 22 25 15 18 14
  -4201039.39308  -3273536.89008  21586471.79808  21586471.97008
  -6001177.51808  -4676239.83408  21719038.30708  21719039.49708
   6608503.33808   5149480.56908  22381171.59108  22381172.07408
   7444479.65708   5800889.99708  23020369.19908  23020371.44308
  -4244263.83908  -3307218.20208  24038869.32308  24038871.21908
  -5096532.41909  -3971324.91608  20372987.10009  20372988.12908
 93 04 14 14 56 00.0000000  0  6 29 22 25 15 18 14
  -4357704.26408  -3395613.42808  21556659.45808  21556659.69508
  -6175009.45908  -4811693.24308  21685959.13708  21685960.34208
   6948432.39408   5414360.22108  22445858.13908  22445858.65808
   7823363.09708   6096123.65808  23092468.51908  23092470.67808
  -4542387.74508  -3539522.47608  23982138.39808  23982140.03408
  -5234575.35909  -4078890.87508  20346718.44409  20346719.47108
 93 04 14 14 58 00.0000000  0  6 29 22 25 15 14 18
  -4512980.42108  -3516607.85408  21527111.38208  21527111.64308
  -6340954.14408  -4941000.76408  21654380.86008  21654382.12308
   7291108.58008   5681380.47508  22511067.29808  22511067.98508
   8204411.52408   6393044.30808  23164979.76908  23164981.91208
  -5365108.34909  -4180604.92508  20321878.79909  20321879.79608
  -4840277.22208  -3771644.06108  23925451.95708  23925453.45408
 93 04 14 15 00 00.0000000  0  7 29 22 25 15 14 18 19
  -4666919.68408  -3636560.53908  21497817.75808  21497817.97608
  -6499014.02008  -5064164.29008  21624303.04408  21624304.27508
   7635967.02308   5950101.18508  22576691.74708  22576692.59308
   8587279.56808   6691382.84008  23237837.26808  23237839.49208
  -5488493.30109  -4276749.06908  20298399.51009  20298400.52108
  -5137927.17908  -4003578.98908  23868811.00408  23868812.55908
         0.26318         0.15217  25210139.84418  25210143.16217
 93 04 14 15 02 00.0000000  0  7 29 22 25 15 18 14 19
  -4818664.10108  -3754802.95508  21468941.76608  21468941.97708
  -6648415.67708  -5180581.15908  21595872.86408  21595874.17908
   7983238.63908   6220702.27308  22642775.43408  22642776.28108
   8972408.79208   6991483.31808  23311125.24608  23311127.58708
  -5435114.48408  -4235153.41608  23812258.00308  23812259.59608
  -5603647.27509  -4366479.46808  20276486.47109  20276487.55108
   -392181.53008   -305596.01307  25135510.11608  25135513.38807
 93 04 14 15 04 00.0000000  0  7 29 22 25 15 18 14 19
  -4968336.76008  -3871431.01208  21440459.95308  21440460.24708
  -6789071.95508  -5290183.44408  21569106.91908  21569108.16108
   8333115.91708   6493333.73908  22709354.92408  22709355.96208
   9359558.15508   7293157.91708  23384797.66608  23384799.97108
  -5731620.01808  -4466196.57108  23755834.63608  23755836.33808
  -5710486.07309  -4449730.50808  20256155.76309  20256156.81108
   -781909.19208   -609279.82507  25061347.36108  25061350.58207
 93 04 14 15 06 00.0000000  0  7 29 22 25 15 18 14 19
  -5116283.24008  -3986714.00308  21412306.73808  21412307.05508
  -6921169.38208  -5393116.46308  21543969.67508  21543970.82608
   8685161.08108   6767654.45908  22776347.00608  22776348.15808
   9748220.96008   7596011.77908  23458757.67508  23458760.14208
  -6027516.01708  -4696764.75708  23699527.48208  23699529.04108
  -5809303.04609  -4526730.76408  20237351.54309  20237352.59308
  -1169593.28608   -911371.21807  24987573.44508  24987576.38507
 93 04 14 15 08 00.0000000  0  7 29 22 25 15 18 14 19
  -5263067.65408  -4101091.48108  21384374.64608  21384374.87008
  -7045073.24308  -5489664.86308  21520391.57608  21520392.61408
   9038923.49308   7043313.29408  22843665.98908  22843667.07808
  10137717.57108   7899515.35708  23532876.45508  23532879.00108
  -6323717.91008  -4927571.37208  23643162.07308  23643163.58208
  -5900418.41709  -4597729.78408  20220012.90009  20220013.94008
  -1555794.18508  -1212306.93407  24914081.75608  24914084.91207
 93 04 14 15 10 00.0000000  0  7 29 22 25 15 18 14 19
  -5407753.93608  -4213834.05608  21356841.78708  21356842.05508
  -7159878.54508  -5579123.48008  21498544.63608  21498545.83508
   9394766.07808   7320593.03308  22911380.80408  22911381.87908
  10528646.69308   8204135.16708  23607268.18408  23607270.65208
  -6618978.96808  -5157644.88008  23586975.76808  23586977.27508
  -5983238.82509  -4662265.20208  20204252.70409  20204253.79708
  -1939305.32608  -1511146.77507  24841101.69108  24841105.23107
 93 04 14 15 12 00.0000000  0  7 29 22 25 15 18 14 19
  -5550148.44608  -4324790.83508  21329744.95508  21329745.31108
  -7265530.00008  -5661449.24608  21478439.84608  21478441.03308
   9752424.57208   7599287.74508  22979441.26508  22979442.24108
  10920766.83908   8509683.03008  23681886.54408  23681889.07508
  -6913402.74408  -5387065.96608  23530948.74008  23530950.39908
  -6057132.24609  -4719844.53008  20190191.29209  20190192.42408
  -2320475.49408  -1808162.45607  24768567.46508  24768570.89807
 93 04 14 15 14 00.0000000  0  7 29 22 25 15 18 14 19
  -5690941.73308  -4434499.90208  21302952.91008  21302953.24208
  -7362447.08008  -5736969.03008  21459997.14708  21459998.36008
  10111665.10308   7879215.19508  23047802.65508  23047803.53908
  11313364.57708   8815603.03108  23756595.68908  23756598.29708
  -7207536.51208  -5616261.06808  23474977.01108  23474978.52808
  -6122983.76909  -4771157.43808  20177660.20209  20177661.32208
  -2699314.53208  -2103361.62507  24696477.05808  24696480.06307
 93 04 14 15 16 00.0000000  0  7 29 22 25 15 18 14 19
  -5830215.00108  -4543024.54408  21276450.19408  21276450.42108
  -7450662.24608  -5805708.12808  21443210.29308  21443211.57408
  10472241.50808   8160183.58408  23116418.35508  23116419.11108
  11706124.65108   9121649.50308  23831335.55708  23831338.34108
  -7501649.05408  -5845439.64808  23419009.31408  23419010.75708
  -6180720.59509  -4816147.20808  20166673.31609  20166674.43808
  -3075891.81308  -2396798.33307  24624816.56308  24624819.61307
 93 04 14 15 18 00.0000000  0  7 29 22 25 15 18 14 19
  -5966897.97508  -4649530.78308  21250440.32508  21250440.56608
  -7529503.86308  -5867143.18908  21428207.45008  21428208.51508
  10834243.25708   8442262.62008  23185305.13308  23185306.11508
  12099444.22708   9428131.93808  23906181.97808  23906184.96508
  -7794805.33608  -6073873.05408  23363223.46908  23363224.86308
  -6229569.07409  -4854211.00008  20157377.81409  20157378.94708
  -3449892.11008  -2688226.99208  24553646.59108  24553649.80108
 93 04 14 15 20 00.0000000  0  7 29 22 25 15 14 18 19
  -6101661.15508  -4754541.06508  21224795.67008  21224795.98908
  -7598779.93608  -5921124.57308  21415024.65708  21415025.73608
  11197925.70608   8725651.28508  23254511.67408  23254512.74408
  12493246.72008   9734990.64108  23981120.51108  23981123.48808
  -6269415.53609  -4885260.22508  20149795.33409  20149796.46808
  -8087117.09508  -6301648.40808  23307598.37108  23307599.74908
  -3821050.57208  -2977441.23108  24483017.51608  24483020.53408
 93 04 14 15 22 00.0000000  0  7 29 22 25 15 18 14 19
  -6234393.88808  -4857969.18308  21199537.57208  21199537.82508
  -7658503.32208  -5967662.28808  21403659.63008  21403660.76208
  11562817.84308   9009982.54808  23323948.46008  23323949.64608
  12887261.74008  10042014.92908  24056099.47408  24056102.45608
  -8378730.94508  -6528879.96508  23252105.96608  23252107.60908
  -6300329.81109  -4909349.31008  20143912.51509  20143913.66308
  -4189044.83508  -3264189.91008  24412990.60208  24412993.42308
 93 04 14 15 24 00.0000000  0  7 29 22 25 15 18 14 19
  -6365066.92408  -4959792.33408  21174671.31908  21174671.63708
  -7709023.90608  -6007028.94708  21394045.86508  21394046.99508
  11928576.62008   9294989.09908  23393550.21908  23393551.43608
  13280887.97008  10348736.25608  24131004.37408  24131007.46308
  -8669873.80108  -6755744.48008  23196703.34808  23196704.84308
  -6322465.52609  -4926597.96208  20139700.24509  20139701.37408
  -4554580.93408  -3549023.11408  24343431.12208  24343434.09008
 93 04 14 15 26 00.0000000  0  7 29 22 25 15 18 14 19
  -6494144.40808  -5060372.20808  21150108.67008  21150108.95408
  -7750621.99608  -6039443.01408  21386129.99908  21386131.11508
  12294956.60108   9580479.70308  23463270.30608  23463271.72608
  13673606.61108  10654750.35108  24205736.51608  24205739.68108
  -8960775.18208  -6982420.85208  23141346.78008  23141348.07908
  -6336068.59909  -4937197.79608  20137111.79909  20137112.95808
  -4917939.73808  -3832159.71708  24274286.09508  24274289.04108
 93 04 14 15 28 00.0000000  0  6 29 22 25 15 18 14
  -6620713.95208  -5158997.83508  21126023.30708  21126023.62008
  -7782582.16608  -6064347.02608  21380048.13908  21380049.37708
  12662434.83408   9866826.05908  23533199.33708  23533200.81808
  14065897.64008  10960431.23608  24280387.47808  24280390.64408
  -9250960.59008  -7208539.30108  23086126.33308  23086127.66008
  -6340517.44309  -4940664.47008  20136265.22609  20136266.39808
 93 04 14 15 30 00.0000000  0  6 29 22 25 15 18 19
  -6744868.76208  -5255741.86008  21102397.43208  21102397.78208
  -7804916.92308  -6081750.74008  21375798.00908  21375799.23408
  13030793.33808  10153858.34308  23603296.01208  23603297.58208
  14457524.64608  11265594.70008  24354911.82108  24354915.28108
  -9540264.00708  -7433970.47708  23031073.50808  23031075.07808
         0.17618         0.27418  24137826.21618  24137829.35418
 93 04 14 15 32 00.0000000  0  7 29 22 25 15 18 14 19
  -6866766.05108  -5350726.76808  21079201.20108  21079201.48608
  -7817567.51908  -6091608.38808  21373390.77408  21373391.93208
  13399719.79608  10441333.18108  23673500.53808  23673502.23108
  14848334.31708  11570121.24108  24429280.80808  24429284.18608
  -9828689.84308  -7658717.85608  22976187.70708  22976189.49708
        -0.84419        -0.25318  20139776.17219  20139777.35118
   -353937.72008   -275795.39708  24070474.42208  24070477.08208
 93 04 14 15 34 00.0000000  0  7 29 22 18 25 15 19 14
  -6986566.24608  -5444077.57508  21056403.97608  21056404.30708
  -7820564.00408  -6093943.36208  21372820.54408  21372821.80008
 -10116050.51908  -7882635.24408  22921504.91208  22921506.59908
  13769292.98308  10729311.93608  23743828.20208  23743830.05508
  15238090.18808  11873826.61408  24503449.35008  24503452.80908
   -704617.79808   -549052.47708  24003742.01408  24003744.73608
     23210.90009     18086.76008  20144193.25609  20144194.47108
 93 04 14 15 36 00.0000000  0  7 29 22 18 25 15 19 14
  -7104085.33908  -5535650.90908  21034040.87008  21034041.14108
  -7814313.56108  -6089072.93508  21374009.99308  21374011.21008
 -10402957.91808  -8106199.41108  22866908.35808  22866909.79908
  14139366.26308  11017680.37208  23814251.09608  23814253.01608
  15626187.90608  12176239.85408  24577302.35508  24577305.95708
  -1052492.62408   -820123.64208  23937543.45708  23937546.28208
     55159.79609     42981.94708  20150273.00509  20150274.21408
 93 04 14 15 38 00.0000000  0  6 29 22 18 25 15 19
  -7219561.93808  -5625632.68908  21012066.44708  21012066.73108
  -7798933.39408  -6077088.41908  21376936.82508  21376937.95208
 -10689797.98508  -8329711.11608  22812324.46408  22812325.93508
  14509050.16408  11305745.37208  23884599.95108  23884601.85908
  16012324.99508  12477125.29207  24650782.13108  24650786.07707
  -1397910.64208  -1089280.41108  23871812.43808  23871815.11008
 93 04 14 15 40 00.0000000  0  7 22 18 25 15 19 14 29
  -7773879.27908  -6057565.73808  21381704.42808  21381705.60108
 -10975582.42108  -8552400.26108  22757941.48608  22757942.96808
  14878988.27908  11594008.47808  23954996.97708  23954998.99208
  16396867.16508  12776767.87207  24723958.56108  24723962.67907
  -1739945.42308  -1355800.87608  23806725.27608  23806727.86408
        -0.56119        -0.59118  20167516.65619  20167517.88818
  -7332677.88208  -5713774.99708  20990541.28208  20990541.52108
 93 04 14 15 42 00.0000000  0  7 22 18 25 15 19 14 29
  -7739142.52908  -6030498.12908  21388314.64008  21388315.71708
 -11260283.88508  -8774245.55008  22703764.67508  22703766.02708
  15249200.35508  11882485.02308  24025446.37008  24025448.54708
  16779654.11008  13075042.70507  24796800.99308  24796805.19407
  -2078545.41708  -1619644.91708  23742291.72208  23742294.39808
     59104.32909     46055.09208  20178763.96709  20178765.22208
  -7443184.64908  -5799884.17708  20969512.50708  20969512.82908
 93 04 14 15 44 00.0000000  0  7 22 18 25 15 19 14 29
  -7694296.95308  -5995553.49208  21396848.44008  21396849.58508
 -11543773.15008  -8995146.25508  22649818.35408  22649819.79208
  15620002.07708  12171421.01708  24096008.06908  24096010.28308
  17160953.52708  13372158.38907  24869360.62108  24869364.91307
  -2413543.40508  -1880682.21008  23678543.75608  23678546.43508
    128037.26009     99768.99608  20191881.56509  20191882.83608
  -7550643.07708  -5883618.03608  20949063.86608  20949064.22708
 93 04 14 15 46 00.0000000  0  7 22 18 19 25 15 14 29
  -7639354.51408  -5952741.18708  21407303.65108  21407304.75208
 -11825613.26308  -9214761.91608  22596185.88808  22596187.39608
  -2744433.52708  -2138518.57208  23615577.43108  23615580.12908
  15991539.44608  12460930.23608  24166709.57408  24166711.88908
  17540607.56707  13667991.94307  24941606.88607  24941611.60407
    206340.02009    160784.06208  20206782.14909  20206783.38008
  -7655109.38408  -5965020.37308  20929184.60008  20929184.95108
 93 04 14 15 48 00.0000000  0  7 22 18 19 25 15 14 29
  -7575583.30708  -5903049.32808  21419438.94908  21419439.95208
 -12106688.44108  -9433781.52608  22542699.14908  22542700.51908
  -3072616.62508  -2394245.56708  23553126.26808  23553128.88308
  16361929.58408  12749545.49008  24237192.75108  24237195.21208
  17917205.38107  13961444.00607  25013271.85607  25013276.51507
    293311.15809    228553.71308  20223332.29109  20223333.56208
  -7757332.67608  -6044674.90408  20909732.16708  20909732.53308
 93 04 14 15 50 00.0000000  0  7 22 18 19 25 15 29 14
  -7502344.35508  -5845980.02208  21433375.84008  21433376.99708
 -12386832.73208  -9652075.76308  22489389.36108  22489390.79708
  -3397409.12608  -2647330.56108  23491320.06908  23491322.75408
  16732249.67808  13038106.16707  24307662.51308  24307665.02607
  18291253.97707  14252909.63307  25084451.59107  25084456.44107
  -7856817.40008  -6122195.48608  20890800.91608  20890801.14508
    389669.53809    303638.09208  20241668.66809  20241670.04408
 93 04 14 15 52 00.0000000  0  7 22 18 19 25 15 29 14
  -7419727.48008  -5781603.25008  21449097.33308  21449098.46308
 -12666340.31208  -9869873.85908  22436200.83908  22436202.31508
  -3718667.43108  -2897661.62808  23430186.56608  23430189.26408
  17102420.81008  13326550.75307  24378104.14608  24378106.72707
  18662543.28807  14542225.09007  25155106.01407  25155111.40907
  -7953671.35708  -6197666.12308  20872370.18008  20872370.50308
    495379.29509    386009.25208  20261784.63009  20261786.03008
 93 04 14 15 54 00.0000000  0  7 22 18 19 25 15 29 14
  -7327581.96908  -5709801.59508  21466632.08608  21466633.16308
 -12944476.62808 -10086603.44008  22383273.30408  22383274.72908
  -4036454.35408  -3145287.71108  23369713.67508  23369716.16308
  17471876.85808  13614438.13607  24448409.77008  24448412.39807
  19031113.36807  14829421.54907  25225243.25807  25225248.97007
  -8047719.71408  -6270950.59008  20854473.41608  20854473.76808
    610238.58509    475509.91208  20283641.66409  20283643.04408
 93 04 14 15 56 00.0000000  0  7 22 18 19 25 15 29 14
  -7226012.78708  -5630656.82808  21485960.09308  21485961.19808
 -13221496.76708 -10302463.27708  22330558.09108  22330559.53308
  -4350655.24808  -3390119.49908  23309923.26008  23309925.69208
  17841017.47208  13902079.72507  24518655.19208  24518657.93907
  19396755.06307  15114336.03107  25294823.43907  25294829.29107
  -8138719.44208  -6341859.49808  20837156.75308  20837157.16208
    734133.77309    572051.52508  20307218.17709  20307219.66108
 93 04 14 15 58 00.0000000  0  7 22 18 19 25 15 29 14
  -7115067.92308  -5544206.35208  21507072.28708  21507073.38808
 -13497064.11708 -10517191.06808  22278119.31108  22278120.89708
  -4661120.32908  -3632040.27108  23250843.73308  23250846.24008
  18210139.68708  14189706.97507  24588897.13808  24588900.06807
  19759325.21707  15396857.04107  25363819.25607  25363825.27007
  -8226672.21208  -6410394.14808  20820419.92408  20820420.36008
    867159.96109    675708.19008  20332532.34009  20332533.74708
 93 04 14 16 00 00.0000000  0  7 22 18 19 25 15 29 14
  -6994725.08108  -5450432.78608  21529972.89608  21529973.94508
 -13771152.59508 -10730766.48008  22225962.16508  22225963.62308
  -4968071.31408  -3871222.78808  23192432.68608  23192435.21208
  18578855.75908  14477017.73707  24659061.90808  24659064.87907
  20118763.76707  15676937.80907  25432219.03407  25432225.35607
  -8311634.78708  -6476598.78408  20804252.12108  20804252.54308
   1009575.52209    786681.25108  20359633.28509  20359634.69308
 93 04 14 16 02 00.0000000  0  7 22 18 19 25 15 29 14
  -6865131.53608  -5349450.89708  21554633.65008  21554634.95308
 -14043590.37308 -10943055.63908  22174119.01808  22174120.35308
  -5271282.89108  -4107491.47708  23134733.30008  23134735.95808
  18946738.37608  14763679.08707  24729067.99808  24729071.12007
  20474846.86007  15954403.80807  25499980.42107  25499987.19407
  -8393271.41008  -6540211.78108  20788717.26408  20788717.59008
   1161108.87509    904759.08008  20388469.16309  20388470.60808
 93 04 14 16 04 00.0000000  0  7 22 18 19 25 15 29 14
  -6726444.91408  -5241383.51608  21581024.98408  21581026.27508
 -14314727.64008 -11154331.39808  22122523.17608  22122524.63908
  -5570611.03708  -4340734.13408  23077773.35008  23077775.61508
  19313975.03607  15049837.03707  24798951.20907  24798954.27007
  20827349.73907  16229079.85807  25567060.75407  25567067.70207
  -8471594.74008  -6601243.00008  20773812.86808  20773813.27508
   1321370.10709   1029637.85208  20418965.97709  20418967.43008
 93 04 14 16 06 00.0000000  0  7 22 18 19 25 15 29 14
  -6578790.11908  -5126327.94608  21609122.96208  21609124.06808
 -14584419.67508 -11364481.00508  22071202.45508  22071203.85908
  -5866435.26708  -4571246.48208  23021479.70808  23021482.20908
  19680512.21507  15335449.96407  24868701.21307  24868704.68307
  21176092.06507  16500825.44007  25633425.23807  25633432.65807
  -8546987.48908  -6659990.64508  20759466.14108  20759466.54808
   1490266.65409   1161245.43708  20451106.05009  20451107.46708
 93 04 14 16 08 00.0000000  0  7 22 18 19 25 15 29 14
  -6422321.99808  -5004404.83608  21638897.76008  21638899.07108
 -14852440.67708 -11573328.50408  22020199.77408  22020201.10808
  -6158495.05308  -4798825.47608  22965902.40908  22965905.06008
  20046008.91607  15620252.11007  24938253.03907  24938256.89307
  21520867.18107  16769479.64307  25699034.79407  25699042.85607
  -8619086.04208  -6716171.38408  20745746.29408  20745746.76208
   1667947.74209   1299698.11408  20484917.73209  20484919.21308
 93 04 14 16 10 00.0000000  0  7 22 18 19 25 29 14 15
  -6256617.31708  -4875284.40808  21670430.35208  21670431.84308
 -15118678.04508 -11780786.16008  21969536.39108  21969537.85508
  -6446538.77408  -5023275.06608  22911089.62708  22911092.07908
  20410950.46507  15904621.74407  25007699.49107  25007703.33907
  -8687193.80908  -6769242.42108  20732785.84508  20732786.33708
   1855075.14909   1445511.56208  20520526.93209  20520528.51708
  21862059.67006  17035342.00706  25763963.07206  25763971.70306
 93 04 14 16 12 00.0000000  0  6 22 18 19 25 29 14
  -6081629.46408  -4738930.29708  21703729.62208  21703730.93508
 -15382688.14308 -11986508.27708  21919296.97708  21919298.36108
  -6730250.16508  -5244348.80208  22857100.99808  22857103.49508
  20775661.96407  16188812.09807  25077102.29007  25077106.02507
  -8751342.42909  -6819228.41108  20720578.85909  20720579.24308
   2051463.60809   1598541.41208  20557898.54109  20557900.07608
 93 04 14 16 14 00.0000000  0  6 22 18 19 25 29 14
  -5898092.48508  -4595914.51708  21738655.50508  21738656.80808
 -15645036.63808 -12190935.63308  21869373.64808  21869375.08708
  -7010347.92608  -5462606.73308  22803800.19608  22803802.61308
  21139075.65907  16471991.19607  25146257.87607  25146261.74807
  -8812163.69409  -6866621.65308  20709004.98409  20709005.37408
   2256078.39209   1757981.39708  20596835.47209  20596837.03508
 93 04 14 16 16 00.0000000  0  5 22 18 19 29 14
  -5706106.95108  -4446315.46108  21775189.30708  21775190.61608
 -15905509.21208 -12393901.23608  21819807.48108  21819808.80908
  -7286735.83108  -5677973.87108  22751205.27408  22751207.68308
  -8869236.71008  -6911094.18708  20698144.35608  20698144.81108
   2469010.75509   1923902.60608  20637355.27209  20637356.84108
 93 04 14 16 18 00.0000000  0  5 22 18 19 29 14
  -5505814.72508  -4290243.66708  21813303.75508  21813305.05508
 -16164150.13808 -12595439.57508  21770589.66608  21770590.95708
  -7559342.24108  -5890394.40308  22699329.99708  22699332.45108
  -8923006.89909  -6952993.08308  20687912.32409  20687912.75408
   2690430.04508   2096436.99408  20679490.03608  20679491.67708
 93 04 14 16 20 00.0000000  0  6 22 18 19 28 29 14
  -5297332.60808  -4127790.17108  21852976.50108  21852977.93408
 -16421018.94608 -12795597.05508  21721709.09508  21721710.40908
  -7828082.43608  -6099802.29208  22648190.41608  22648192.74008
        -0.24517        -0.17217  25184511.20417  25184515.87317
  -8973028.51109  -6991971.02308  20678393.52709  20678394.02508
   2920212.14108   2275487.85208  20723216.21008  20723217.90608
 93 04 14 16 22 00.0000000  0  6 22 18 19 28 29 14
  -5080779.94808  -3959047.95808  21894185.27208  21894186.72908
 -16675681.54108 -12994035.40208  21673248.33208  21673249.78208
  -8093171.71308  -6306365.32808  22597745.63708  22597747.74308
   -275282.27307   -214505.20907  25132126.13007  25132131.19807
  -9019283.26809  -7028013.74708  20669591.65109  20669592.07308
   3157907.59708   2460704.95208  20768448.23508  20768449.97508
 93 04 14 16 24 00.0000000  0  6 22 18 19 28 29 14
  -4856386.71208  -3784196.21808  21936886.05408  21936887.45608
 -16928649.01408 -13191152.88708  21625110.22408  21625111.55408
  -8354903.43608  -6510312.08508  22547939.58008  22547941.91308
   -550507.93807   -428966.25307  25079752.01007  25079756.89207
  -9061865.70709  -7061194.93608  20661488.53509  20661488.96908
   3403480.77008   2652060.51808  20815179.36708  20815181.27908
 93 04 14 16 26 00.0000000  0  6 22 18 19 28 29 14
  -4624281.74708  -3603335.35008  21981054.13208  21981055.54408
 -17179570.71608 -13386676.28308  21577361.56908  21577362.87508
  -8612747.57408  -6711229.54008  22498873.60108  22498875.87108
   -825470.55007   -643222.28407  25027428.10407  25027432.90307
  -9100597.76608  -7091375.81908  20654118.07508  20654118.61308
   3657003.02408   2849610.17608  20863423.19908  20863424.97108
 93 04 14 16 28 00.0000000  0  6 22 18 19 28 29 14
  -4384587.92308  -3416561.10908  22026666.53608  22026668.01208
 -17428237.83908 -13580442.86708  21530041.64408  21530042.95208
  -8867079.71208  -6909410.38208  22450475.73608  22450477.99108
  -1100031.74907   -857165.54607  24975180.53507  24975185.01907
  -9135525.35309  -7118592.18608  20647471.72909  20647472.15208
   3918168.42208   3053115.52308  20913121.36608  20913123.24708
 93 04 14 16 30 00.0000000  0  6 14 22 18 19 28 29
   4187345.88408   3262864.02708  20964344.22508  20964346.28008
  -4136809.63408  -3223487.30708  22073817.43308  22073818.92508
 -17674040.41708 -13771977.32608  21483267.02608  21483268.30108
  -9117403.91908  -7104468.15608  22402840.57008  22402842.81508
  -1373134.19707  -1069972.16907  24923210.23307  24923214.96307
  -9165939.03109  -7142291.21708  20641684.16009  20641684.66608
 93 04 14 16 32 00.0000000  0  6 14 22 18 19 28 29
   4464546.58508   3478864.40108  21017093.92708  21017095.90808
  -3881079.05508  -3024216.91708  22122481.43508  22122482.98808
 -17916800.73008 -13961141.19508  21437071.20708  21437072.49808
  -9362894.54208  -7295759.51508  22356125.22508  22356127.47708
  -1644320.04607  -1281285.45007  24871604.74507  24871609.53907
  -9191480.45008  -7162193.67808  20636823.80908  20636824.41808
 93 04 14 16 34 00.0000000  0  6 14 22 18 19 28 29
   4749132.13608   3700619.19308  21071248.97108  21071250.94408
  -3618077.76008  -2819281.02508  22172529.03808  22172530.74708
 -18157329.54108 -14148566.24908  21391300.11108  21391301.41908
  -9604845.98308  -7484293.05308  22310083.28008  22310085.61308
  -1914478.98508  -1491798.49907  24820195.29508  24820199.73007
  -9212795.26108  -7178802.68008  20632767.76608  20632768.39508
 93 04 14 16 36 00.0000000  0  6 14 22 18 19 28 29
   5041084.15508   3928114.09408  21126805.81408  21126807.69408
  -3348007.57408  -2608836.89408  22223921.80908  22223923.51708
 -18395196.03708 -14333916.75608  21346035.79508  21346037.02808
  -9843183.74508  -7670010.72008  22264729.14908  22264731.46708
  -2183376.36108  -1701328.56007  24769025.34708  24769029.67107
  -9229927.40609  -7192152.46208  20629507.76309  20629508.31508
 93 04 14 16 38 00.0000000  0  8 14 22 18 19 28 29 27 31
   5340083.13508   4161100.12808  21183703.54108  21183705.51608
  -3071071.72408  -2393042.87208  22276621.09708  22276622.71208
 -18630426.75408 -14517213.39908  21301272.59608  21301273.90708
 -10077925.79308  -7852926.55208  22220059.19708  22220061.39308
  -2450871.49008  -1909766.01608  24718122.77908  24718126.84608
  -9242758.75409  -7202150.98508  20627066.12209  20627066.64008
        -0.09917        -0.41416  25417820.35017  25417824.36116
        -0.37717        -0.11617  25221116.84817  25221122.79317
 93 04 14 16 40 00.0000000  0  8 14 22 18 19 28 29 27 31
   5645928.31908   4399420.85908  21241904.07408  21241906.11108
  -2787189.69308  -2171836.22708  22330642.22708  22330643.78608
 -18862786.35408 -14698272.80708  21257056.23508  21257057.50008
 -10308881.38308  -8032891.87708  22176109.77908  22176111.94508
  -2716218.04008  -2116529.31908  24667628.54708  24667632.88108
  -9251199.11908  -7208727.95808  20625459.94008  20625460.62308
   -336327.42607   -262073.62307  25353819.51907  25353823.75107
   -314978.69207   -245437.19907  25161178.05407  25161183.88007
 93 04 14 16 42 00.0000000  0  8 14 22 18 19 28 29 27 31
   5958659.07308   4643106.97108  21301414.92308  21301416.99208
  -2496727.61708  -1945502.28608  22385915.38808  22385917.15608
 -19092402.08908 -14877194.15108  21213361.72908  21213363.03208
 -10535744.88608  -8209668.56708  22132938.96908  22132941.14808
  -2979752.47908  -2321880.61908  24617479.52008  24617483.64308
  -9255045.55009  -7211725.24408  20624728.13409  20624728.74408
   -671164.23607   -522985.35307  25290101.83107  25290106.35707
   -632285.78807   -492689.05207  25100795.94607  25100802.09407
 93 04 14 16 44 00.0000000  0  8 14 22 18 19 28 29 27 31
   6278556.27108   4892377.31208  21362289.57908  21362291.66108
  -2199239.61208  -1713693.63308  22442525.54508  22442527.47308
 -19318291.17808 -15053211.62408  21170376.50208  21170377.79408
 -10758266.17808  -8383061.72508  22090594.58208  22090596.59608
  -3240664.60008  -2525188.62408  24567829.45908  24567833.42308
  -9253636.83509  -7210627.62208  20624996.27509  20624996.86108
  -1004283.59007   -782558.80307  25226711.08607  25226715.63207
   -951670.01007   -741559.49407  25040019.05407  25040024.81307
 93 04 14 16 46 00.0000000  0  8 14 22 18 28 29 27 19 31
   6605517.45708   5147152.04408  21424508.37208  21424510.51808
  -1894839.48108  -1476498.93008  22500451.21908  22500453.00208
 -19540499.07108 -15226360.64308  21128091.75108  21128093.08008
  -3498807.94008  -2726339.12108  24518706.40708  24518710.37808
  -9247148.10408  -7205571.54208  20626231.01808  20626231.67708
  -1335395.18407  -1040567.75607  25163702.88907  25163706.99507
 -10976707.99408  -8553276.06508  22049026.38708  22049028.43108
  -1272761.37407   -991760.14807  24978917.16907  24978922.87007
 93 04 14 16 48 00.0000000  0  8 14 22 18 28 27 29 19 31
   6938578.27308   5406679.73708  21487887.80408  21487890.08208
  -1584482.50508  -1234662.53608  22559510.44208  22559512.14408
 -19759932.04408 -15397347.37708  21086334.99808  21086336.39008
  -3754545.85108  -2925615.26308  24470041.02308  24470045.12708
  -1665347.21607  -1297673.17007  25100915.08807  25100919.18507
  -9236186.58808  -7197030.18108  20628316.98708  20628317.65308
 -11191870.32408  -8720934.97708  22008082.46908  22008084.44308
  -1595494.51807  -1243239.93207  24917502.70807  24917508.29807
 93 04 14 16 50 00.0000000  0  8 14 22 18 28 27 29 19 31
   7277643.28708   5670886.01008  21552409.88508  21552412.21708
  -1268377.26508   -988346.99508  22619663.39608  22619665.15608
 -19976414.01408 -15566034.63708  21045139.87108  21045141.21908
  -4007722.90508  -3122895.89408  24421862.64308  24421866.71308
  -1994158.37408  -1553889.56007  25038344.42608  25038348.52707
  -9220626.56409  -7184905.57308  20631278.04709  20631278.81208
 -11403487.90808  -8885831.76808  21967812.85608  21967815.03008
  -1920509.03808  -1496497.36807  24855654.09908  24855659.45207
 93 04 14 16 52 00.0000000  0  8 14 22 19 28 27 29 18 31
   7622755.98608   5939804.74808  21618082.82408  21618085.24508
   -946560.60808   -737580.99308  22680903.25808  22680905.08208
 -11611663.28408  -9048046.31908  21928198.40508  21928200.60008
  -4258135.54408  -3318022.40908  24374210.68808  24374214.81508
  -2321445.28508  -1808918.19107  24976063.52808  24976067.71807
  -9200231.85509  -7169013.68108  20635159.12209  20635159.87008
 -20189495.98208 -15732072.55508  21004591.78408  21004593.02608
  -2247505.99408  -1751299.62907  24793428.16408  24793433.05907
 93 04 14 16 54 00.0000000  0  8 14 22 19 28 27 29 18 31
   7973620.41908   6213205.35108  21684850.29508  21684852.82108
   -618742.21808   -482138.29708  22743285.16608  22743287.15008
 -11815715.72308  -9207048.20208  21889368.53408  21889370.56808
  -4505083.71808  -3510449.33108  24327218.02308  24327221.86808
  -2647010.21508  -2062605.00407  24914110.49608  24914114.62807
  -9174715.19609  -7149130.66508  20640014.85409  20640015.64708
 -20398867.24808 -15895219.01908  20964749.67708  20964751.02608
  -2575395.59207  -2006797.51607  24731032.33407  24731037.51707
 93 04 14 16 56 00.0000000  0  8 14 22 28 27 19 29 18 31
   8331052.21408   6491723.37508  21752867.58308  21752870.05108
   -284995.01408   -222075.74508  22806795.29308  22806797.32308
  -4748576.08608  -3700183.42008  24280882.95908  24280886.52708
  -2970590.54708  -2314745.43607  24852535.25408  24852539.07407
 -12015516.86708  -9362737.38308  21851347.56708  21851349.69008
  -9143625.99309  -7124905.39108  20645930.99509  20645931.73308
 -20604109.40508 -16055147.99908  20925693.46608  20925694.84108
  -2904310.60208  -2263094.49307  24668441.71708  24668446.81107
 93 04 14 16 58 00.0000000  0  8 14 22 28 27 19 29 18 31
   8693705.49008   6774310.07708  21821878.39508  21821880.85008
     53785.42808     41908.82008  22871263.12408  22871265.24408
  -4988485.72008  -3887125.78908  24235229.62808  24235232.94308
  -3293187.93608  -2566119.88807  24791146.96508  24791150.79707
 -12212088.91808  -9515910.38708  21813941.21408  21813943.28008
  -9107553.84009  -7096797.30908  20652795.36709  20652796.18208
 -20805947.91209 -16212424.77608  20887285.01609  20887286.29008
  -3234481.68508  -2520370.25507  24605611.93908  24605616.89407
 93 04 14 17 00 00.0000000  0  8 14 22 28 27 19 29 18 31
   9061566.34908   7060954.62608  21891880.30608  21891882.68808
    397946.01008    310085.69008  22936754.92908  22936757.11308
  -5224597.53808  -4071108.84808  24190298.64408  24190302.19608
  -3614029.16108  -2816125.86907  24730092.89508  24730096.66607
 -12404855.34808  -9666117.96208  21777258.89608  21777261.03508
  -9066149.75709  -7064534.47708  20660674.39209  20660675.16808
 -21003751.61309 -16366557.55708  20849644.28509  20849645.55608
  -3565335.83208  -2778178.28907  24542652.35308  24542657.10007
 93 04 14 17 02 00.0000000  0  8 14 22 19 28 27 31 29 18
   9434719.54708   7351723.06908  21962889.23108  21962891.72908
    747385.03208    582375.62108  23003251.08508  23003253.31408
 -12593834.41908  -9813374.34808  21741297.40408  21741299.46408
  -5456792.02408  -4252039.45808  24146113.39408  24146116.78008
  -3933070.58108  -3064729.40408  24669381.06508  24669384.95608
  -3896636.96008  -3036334.64007  24479607.35408  24479612.05707
  -9019330.10709  -7028051.72208  20669583.92109  20669584.77208
 -21197518.38209 -16517544.67008  20812771.69009  20812772.94908
 93 04 14 17 04 00.0000000  0  8 14 22 28 27 19 29 18 31
   9813366.56208   7646772.40208  22034943.47908  22034946.16108
   1101928.55608    858643.07708  23070718.55108  23070721.02408
  -5684838.72808  -4429738.06308  24102717.54408  24102720.99708
  -4250528.24708  -3312098.89708  24608970.73608  24608974.70708
 -12778914.10508  -9957592.24808  21706077.73908  21706079.78508
  -8966972.65909  -6987253.80408  20679547.35009  20679548.15208
 -21386791.87709 -16665030.52908  20776754.11009  20776755.37408
  -4228122.99708  -3294635.07507  24416527.33608  24416532.07507
 93 04 14 17 06 00.0000000  0  8 14 22 28 27 19 31 29 18
  10197165.72908   7945836.37208  22107978.15808  22107981.13908
   1461264.12808   1138644.58908  23139098.04308  23139100.55408
  -5908269.38508  -4603839.78608  24060199.77308  24060203.35408
  -4566085.12508  -3557987.26208  24548922.22908  24548926.10908
 -12960284.15308 -10098919.51608  21671564.22208  21671566.23608
  -4560093.46508  -3553313.00208  24353355.21408  24353359.98908
  -8908714.31009  -6941857.78908  20690633.68609  20690634.48708
 -21571956.15709 -16809314.40408  20741518.54509  20741519.81908
 93 04 14 17 08 00.0000000  0  8 14 22 28 27 19 31 29 18
  10584992.07808   8248038.39908  22181779.41808  22181782.25708
   1824763.78908   1421890.83308  23208269.99708  23208272.48308
  -6127492.96608  -4774663.30708  24018483.00208  24018486.51508
  -4880504.15108  -3802989.03208  24489090.34308  24489094.15208
 -13138518.30908 -10237803.24408  21637647.46308  21637649.41508
  -4892491.94308  -3812324.43508  24290101.58908  24290106.10508
  -8845760.65808  -6892803.10608  20702613.30808  20702614.23708
 -21752907.79509 -16950315.69708  20707084.62009  20707085.92808
 93 04 14 17 10 00.0000000  0  8 14 19 22 28 27 31 29 18
  10976634.87408   8553214.25808  22256306.96408  22256309.73608
 -13313574.18608 -10374210.38908  21604335.46708  21604337.39308
   2192163.78608   1708176.28208  23278184.14008  23278186.62008
  -6342909.34208  -4942520.19008  23977490.73308  23977494.15708
  -5193647.19308  -4046996.47008  24429500.96508  24429504.72908
  -5225277.34608  -4071637.42808  24226774.46908  24226778.92808
  -8777821.37809  -6839863.51208  20715541.88709  20715542.77008
 -21930016.85509 -17088322.77608  20673381.80309  20673383.18008
 93 04 14 17 12 00.0000000  0  8 19 14 22 28 27 31 29 18
 -13484722.57508 -10507572.74608  21571766.86808  21571768.98508
  11373116.33608   8862160.48208  22331755.12408  22331757.98808
   2563848.87808   1997800.76208  23348913.64608  23348916.18308
  -6553315.66308  -5106473.13108  23937451.40008  23937454.80508
  -5505134.50108  -4289713.70708  24370226.95608  24370230.63308
  -5557642.64208  -4330623.11108  24163527.22408  24163531.76208
  -8704098.17109  -6782416.95208  20729571.03009  20729571.94808
 -22102503.06109 -17222727.62808  20640558.81509  20640560.19008
 93 04 14 17 14 00.0000000  0  8 19 14 22 28 27 31 29 18
 -13651893.60708 -10637835.86408  21539955.31808  21539957.30408
  11774314.56208   9174782.10708  22408100.71208  22408103.91908
   2940277.09208   2291121.17308  23420545.73508  23420548.31708
  -6757787.63808  -5265801.87608  23898541.72208  23898545.26908
  -5814591.84908  -4530849.16808  24311339.03708  24311342.67508
  -5889043.94708  -4588857.59607  24100463.55808  24100467.99607
  -8623923.88008  -6719943.58608  20744827.74708  20744828.73008
 -22269588.11209 -17352923.79408  20608763.67109  20608764.98808
 93 04 14 17 16 00.0000000  0  8 19 14 22 28 27 29 18 31
 -13815471.15708 -10765298.86208  21508827.52308  21508829.49608
  12179531.62708   9490535.28408  22485211.18908  22485214.58708
   3320693.49508   2587549.25108  23492936.68908  23492939.58108
  -6957188.14208  -5421178.77808  23860597.16508  23860600.40708
  -6122003.08208  -4770390.24108  24252840.37408  24252844.19708
  -8538009.32808  -6652997.28508  20761176.83208  20761177.82908
 -22431899.83309 -17479400.48308  20577876.82809  20577878.13508
  -6219544.49808  -4846390.28407  24037571.14108  24037575.41807
 93 04 14 17 18 00.0000000  0  8 19 14 22 28 27 29 18 31
 -13975636.48308 -10890102.98608  21478349.05508  21478350.99308
  12588445.82608   9809169.32708  22563025.43608  22563028.82608
   3704695.52608   2886771.30508  23566009.86408  23566012.92308
  -7151319.60008  -5572449.90308  23823655.08708  23823658.39008
  -6427668.39408  -5008570.88508  24194674.14408  24194677.83908
  -8446554.87408  -6581734.17908  20778580.12708  20778581.11508
 -22589177.16309 -17601954.28108  20547947.97609  20547949.26808
  -6549139.81208  -5103217.58307  23974851.07808  23974855.31907
 93 04 14 17 20 00.0000000  0  8 19 14 22 28 27 29 18 31
 -14132142.82408 -11012055.93208  21448566.87008  21448568.84608
  13000941.48508  10130594.08408  22641521.21808  22641524.60708
   4092281.95408   3188786.39308  23639765.42208  23639768.48108
  -7339869.18008  -5719371.50008  23787775.08008  23787778.28908
  -6731941.37508  -5245666.58008  24136772.85908  24136776.42908
  -8349011.25008  -6505726.28008  20797142.16808  20797143.17908
 -22741632.25509 -17720750.50208  20518936.83109  20518938.06708
  -6877431.81708  -5359029.32907  23912379.14508  23912383.40307
 93 04 14 17 22 00.0000000  0  8 19 14 22 28 27 29 18 31
 -14285314.93809 -11131410.80608  21419419.23109  21419421.11608
  13417075.35508  10454853.79008  22720709.15608  22720712.47608
   4483157.19508   3493364.19308  23714146.78008  23714149.85208
  -7522826.00108  -5861935.11608  23752959.84708  23752962.68408
  -7034719.74008  -5481597.64408  24079155.80908  24079159.45408
  -8245531.70708  -6425092.98808  20816833.78408  20816834.86008
 -22888988.40209 -17835573.50208  20490895.84209  20490897.18708
  -7204564.88208  -5613938.00207  23850127.48808  23850131.74807
 93 04 14 17 24 00.0000000  0  8 19 14 22 28 29 27 18 31
 -14435082.61609 -11248112.88408  21390919.33109  21390921.36508
  13835990.03308  10781280.35408  22800426.23308  22800429.76008
   4877259.66208   3800456.69408  23789142.35708  23789145.46708
  -7699612.49808  -5999690.72508  23719318.23308  23719321.33608
  -8136167.53808  -6339874.27708  20837645.11008  20837646.33208
  -7335697.75208  -5716125.83008  24021881.62508  24021885.12708
 -23031033.94209 -17946258.36808  20463865.60209  20463866.92308
  -7530196.68908  -5867676.88807  23788161.59408  23788165.99007
 93 04 14 17 26 00.0000000  0  8 19 14 22 28 29 27 18 31
 -14582058.70009 -11362639.68308  21362950.65409  21362952.75808
  14257653.63708  11109848.91408  22880666.46108  22880670.23708
   5273829.87708   4109472.09608  23864607.59408  23864610.62108
  -7871440.34208  -6133582.49308  23686620.17108  23686623.61008
  -8021566.10608  -6250574.59308  20859453.15408  20859454.32808
  -7635464.91908  -5949710.52908  23964837.77608  23964841.45308
 -23168348.25709 -18053256.56608  20437735.52509  20437736.80608
  -7854867.15808  -6120666.69807  23726378.88408  23726383.11807
 93 04 14 17 28 00.0000000  0  8 19 14 22 28 29 27 18 31
 -14724835.05409 -11473893.96608  21335781.26609  21335783.21508
  14683095.36608  11441361.43208  22961625.78908  22961629.72308
   5674117.29908   4421384.00908  23940780.04108  23940783.20408
  -8036020.26508  -6261826.56108  23655301.84708  23655304.85308
  -7900187.36508  -6155993.90308  20882550.92708  20882552.03908
  -7932948.28308  -6181515.63708  23908228.30308  23908231.95308
 -23299208.04809 -18155225.26208  20412833.79709  20412834.99708
  -8176967.35608  -6371653.68707  23665085.13908  23665089.24607
 93 04 14 17 30 00.0000000  0  8 19 14 22 29 28 27 18 31
 -14864015.96709 -11582346.60408  21309295.96909  21309297.86108
  15110845.65308  11774672.80308  23043024.23908  23043028.41508
   6077118.31208   4735410.37508  24017468.90208  24017472.06208
  -7772614.09808  -6056586.29908  20906827.33008  20906828.63708
  -8194193.23708  -6385078.24508  23625202.39608  23625205.55308
  -8228917.01808  -6412140.49508  23851907.36308  23851910.79108
 -23424692.78909 -18253005.60808  20388954.84209  20388956.12008
  -8496704.34208  -6620799.24107  23604241.08108  23604245.27107
 93 04 14 17 32 00.0000000  0  8 19 14 22 29 28 27 18 31
 -14999951.44409 -11688270.33108  21283428.35409  21283430.29008
  15540974.99908  12109837.95708  23124875.68008  23124879.85808
   6482534.85408   5051319.00308  24094617.33808  24094620.60108
  -7639105.52808  -5952553.77508  20932233.36508  20932234.57508
  -8346263.03608  -6503574.20508  23596264.64208  23596267.90108
  -8523327.70808  -6641551.26808  23795882.67108  23795886.24808
 -23544610.28709 -18346447.85708  20366135.37909  20366136.69608
  -8814355.05208  -6868319.14307  23543793.98008  23543798.26307
 93 04 14 17 34 00.0000000  0  8 19 29 14 22 28 27 18 31
 -15133151.02809 -11792062.18608  21258081.27609  21258083.28708
  -7499864.90808  -5844054.72708  20958730.12908  20958731.25308
  15973565.10008  12446920.56108  23207195.32908  23207199.57708
   6890227.91508   5369001.52508  24172199.01508  24172202.49008
  -8491474.54508  -6616726.05408  23568631.79408  23568635.09808
  -8815796.28008  -6869448.71608  23740227.64708  23740231.21608
 -23658558.03809 -18435238.36608  20344451.78609  20344453.20308
  -9129495.46208  -7113882.97207  23483824.81008  23483828.87807
 93 04 14 17 36 00.0000000  0  8 29 19 14 22 28 27 18 31
  -7354646.96208  -5730898.02208  20986364.19608  20986365.52808
 -15262861.02509 -11893134.89508  21233398.24909  21233400.24208
  16408074.63108  12785498.79608  23289880.30408  23289884.58108
   7299965.81308   5688277.40608  24250169.80708  24250173.44208
  -8630424.42808  -6724998.69608  23542190.65008  23542193.72508
  -9106986.39708  -7096350.00608  23684816.08508  23684819.58908
 -23766857.46209 -18519627.57808  20323843.15809  20323844.52808
  -9442062.08308  -7357441.27107  23424345.45708  23424349.27607
 93 04 14 17 38 00.0000000  0  8 29 19 14 22 28 27 18 31
  -7202822.68408  -5612593.53608  21015255.56108  21015256.88208
 -15388914.22509 -11991358.15108  21209411.19309  21209413.13908
  16844639.71408  13125678.73708  23372956.27508  23372960.88708
   7712147.10908   6009457.21208  24328605.60508  24328609.36308
  -8762051.97808  -6827565.61308  23517142.62008  23517145.95608
  -9396235.56108  -7321738.81508  23629773.67308  23629777.00008
 -23868776.68809 -18599045.21108  20304448.61509  20304449.97008
  -9751428.61208  -7598506.02307  23365474.81708  23365478.75107
 93 04 14 17 40 00.0000000  0  8 29 19 14 22 28 27 18 31
  -7044825.92608  -5489479.33508  21045321.40208  21045322.81108
 -15511756.68209 -12087079.54608  21186035.02509  21186036.92908
  17283313.10708  13467501.47408  23456433.44508  23456438.28408
   8126296.85008   6332170.84708  24407416.00608  24407419.85908
  -8886479.03908  -6924521.74708  23493464.91408  23493468.28208
  -9683581.85708  -7545644.90108  23575093.46208  23575096.63908
 -23964734.78209 -18673817.80608  20286188.40109  20286189.80408
 -10057580.18208  -7837065.61407  23307216.07308  23307220.00807
 93 04 14 17 42 00.0000000  0  8 29 19 14 22 28 27 18 31
  -6880699.87608  -5361589.05108  21076553.59108  21076555.05508
 -15631759.93709 -12180588.55808  21163199.10009  21163201.12708
  17723165.57008  13810242.92608  23540135.17808  23540140.14108
   8541991.81008   6656088.55908  24486520.50208  24486524.39308
  -9003842.10808  -7015973.46608  23471131.50508  23471134.73108
  -9969490.70208  -7768430.88308  23520686.58308  23520690.01708
 -24054712.75409 -18743930.56508  20269066.16909  20269067.66608
 -10360689.39308  -8073254.53108  23249536.34808  23249540.24608
 93 04 14 17 44 00.0000000  0  8 29 19 14 22 28 27 18 31
  -6710509.82108  -5228973.58108  21108939.84108  21108941.28208
 -15748512.88709 -12271564.88208  21140981.73509  21140983.79208
  18163926.35008  14153692.13808  23624009.71808  23624014.92708
   8959143.48908   6981141.38607  24565902.11608  24565906.07907
  -9113904.59408  -7101736.42008  23450187.10208  23450190.63108
 -10254200.10608  -7990282.23508  23466508.07708  23466511.60108
 -24138378.06509 -18809124.36708  20253145.18209  20253146.74108
 -10660230.26908  -8306662.89208  23192535.44908  23192539.21908
 93 04 14 17 46 00.0000000  0  8 29 19 14 22 28 27 18 31
  -6534399.17408  -5091744.67808  21142452.82008  21142454.29008
 -15862132.79309 -12360099.89408  21119360.59409  21119362.62608
  18605813.19508  14498018.76208  23708098.53008  23708103.97708
   9377551.29808   7307173.03107  24645522.75008  24645526.85407
  -9217241.90708  -7182258.93108  23430522.69908  23430525.79408
 -10537310.85408  -8210887.84708  23412633.91808  23412637.12508
 -24215793.19109 -18869447.90808  20238413.71009  20238415.21008
 -10956150.68208  -8537250.09708  23136223.78008  23136227.36408
 93 04 14 17 48 00.0000000  0  8 29 19 14 22 28 27 18 31
  -6351813.60408  -4949470.39308  21177197.80608  21177199.31408
 -15972670.84209 -12446233.43308  21098325.91809  21098327.96408
  19049147.29008  14843473.07308  23792462.87608  23792468.47108
   9797590.55908   7634475.92207  24725453.96808  24725458.23907
  -9312629.03908  -7256586.46508  23412371.18108  23412374.44108
 -10818207.75508  -8429768.40708  23359180.87008  23359184.02808
 -24286271.85809 -18924366.41608  20225002.10409  20225003.57008
 -11247953.57708  -8764628.80608  23080695.24808  23080698.97008
 93 04 14 17 50 00.0000000  0  8 29 19 14 22 28 27 18 31
  -6162948.99508  -4802303.34908  21213137.74508  21213139.22108
 -16080171.43809 -12530000.11708  21077869.18909  21077871.20708
  19493155.03108  15189452.27308  23876955.45008  23876961.15208
  10218682.37208   7962598.97207  24805585.44608  24805589.89007
  -9400270.52108  -7324878.41008  23395693.49708  23395696.61308
 -11097660.09508  -8647523.32308  23306002.79408  23306005.89108
 -24350494.97709 -18974410.47008  20212780.90909  20212782.44508
 -11535724.38808  -8988865.62508  23025933.96008  23025937.83608
 93 04 14 17 52 00.0000000  0  8 29 19 14 22 28 27 18 31
  -5968414.99308  -4650718.60408  21250156.40708  21250158.00808
 -16184423.03109 -12611235.11308  21058030.78209  21058032.84208
  19938007.05608  15536089.29208  23961608.62608  23961614.63308
  10640644.25108   8291399.98908  24885882.55208  24885887.05408
  -9480476.19108  -7387376.25608  23380430.67808  23380433.85308
 -11375798.68208  -8864254.53008  23253074.71208  23253077.74508
 -24408235.04109 -19019402.78108  20201793.36209  20201794.91708
 -11819033.25508  -9209625.57208  22972022.06108  22972025.74408
 93 04 14 17 54 00.0000000  0  8 29 19 14 22 28 27 18 31
  -5767090.80908  -4493842.80708  21288467.31908  21288469.02308
 -16285002.66309 -12689608.85408  21038891.13009  21038893.18308
  20383367.40808  15883122.36208  24046358.77008  24046364.72908
  11064021.22608   8621303.68507  24966448.88708  24966453.39507
  -9552364.14808  -7443392.78308  23366750.80808  23366753.90208
 -11651677.72308  -9079225.02408  23200576.45008  23200579.63208
 -24458448.95409 -19058530.56508  20192238.08709  20192239.59308
 -12097311.77208  -9426465.75608  22919067.38508  22919071.09408
 93 04 14 17 56 00.0000000  0  8 29 19 14 22 28 27 18 31
  -5559466.10808  -4332057.50808  21327977.19708  21327978.95108
 -16382737.59909 -12765765.92808  21020292.78309  21020294.80808
  20828863.16908  16230260.91208  24131134.53008  24131140.77008
  11488090.96608   8951747.21407  25047146.88708  25047151.48407
  -9616103.96608  -7493060.11008  23354621.58608  23354624.60108
 -11926009.92508  -9292990.17608  23148372.52508  23148375.72608
 -24501540.07309 -19092108.12408  20184038.07309  20184039.65608
 -12370904.01108  -9639654.29308  22867004.17008  22867007.92808
 93 04 14 17 58 00.0000000  0  8 29 19 14 22 28 27 18 31
  -5346111.88008  -4165807.64808  21368577.22408  21368579.04808
 -16477829.10209 -12839863.20408  21002197.46709  21002199.49208
  21274002.76508  16577121.89008  24215842.66908  24215849.09408
  11912208.32707   9282227.87307  25127853.99607  25127858.75207
  -9672400.52408  -7536927.49008  23343908.76208  23343911.77408
 -12199173.11008  -9505844.40208  23096391.18508  23096394.25008
 -24538286.05409 -19120741.41708  20177045.74609  20177047.27408
 -12640230.77108  -9849519.06408  22815752.88308  22815756.41008
 93 04 14 18 00 00.0000000  0  8 29 14 22 28 27 18 19 31
  -5126888.59408  -3994984.49808  21410294.12808  21410296.03408
  21719056.70308  16923916.05308  24300534.15208  24300541.21408
  12336703.96707   9613003.33707  25208633.11607  25208637.83707
  -9720722.01508  -7574580.58408  23334713.42308  23334716.54008
 -12470916.58008  -9717592.35808  23044679.90508  23044682.97408
 -24568191.72409 -19144044.59508  20171354.85509  20171356.39808
 -16570130.44809 -12911786.32208  20984633.12609  20984635.15608
 -12904459.56708 -10055411.36608  22765471.56508  22765475.11108
 93 04 14 18 02 00.0000000  0  8 29 14 22 28 27 18 19 31
  -4900914.84208  -3818901.25108  21453295.63908  21453297.59008
  22164009.64008  17270631.43108  24385206.75908  24385214.12708
  12761657.09407   9944135.36507  25289499.18107  25289504.00107
  -9760685.08408  -7605720.61808  23327108.77508  23327111.73508
 -12740580.50508  -9927719.88408  22993364.49308  22993367.43408
 -24590740.47709 -19161615.12008  20167064.02409  20167065.58608
 -16659408.33709 -12981353.50608  20967644.17309  20967646.10008
 -13163096.71808 -10256946.52608  22716254.47708  22716257.89008
 93 04 14 18 04 00.0000000  0  8 29 14 22 28 27 18 19 31
  -4669099.07208  -3638265.80008  21497408.89808  21497410.93808
  22608740.06508  17617173.38107  24469837.21108  24469844.58407
  13186825.56707  10275435.24007  25370406.15407  25370411.23407
  -9792361.05408  -7630403.17808  23321080.96808  23321083.99208
 -13008751.19508 -10136683.87908  22942333.15708  22942336.01308
 -24606107.37409 -19173589.38608  20164139.87109  20164141.43208
 -16745454.89109 -13048402.74108  20951269.95109  20951272.02108
 -13416154.31308 -10454133.95308  22668098.77808  22668102.35608
 93 04 14 18 06 00.0000000  0  8 29 28 14 22 27 18 19 31
  -4431372.12908  -3453024.23708  21542646.98008  21542648.95308
  -9815510.68408  -7648441.84408  23316675.68208  23316678.73908
  23052799.10208  17963192.12007  24554339.81308  24554347.52207
  13612076.52707  10606799.30707  25451328.93507  25451334.08507
 -13275186.04408 -10344295.25908  22891632.15108  22891635.00308
 -24614212.86409 -19179905.41808  20162597.48209  20162599.08108
 -16828603.73909 -13113194.05308  20935447.29409  20935449.34908
 -13663245.27908 -10646672.08008  22621078.86508  22621082.19608
 93 04 14 18 08 00.0000000  0  7 29 28 27 14 18 19 31
  -4187766.74008  -3263202.08708  21589003.71008  21589005.63708
  -9830521.47008  -7660138.58708  23313819.16708  23313822.23108
 -13540364.26308 -10550927.45008  22841170.28208  22841173.06908
  23495710.30208  18308316.41207  24638624.10808  24638632.24507
 -24615582.46909 -19180972.70908  20162336.89709  20162338.50308
 -16908867.83809 -13175737.52908  20920173.63409  20920175.55808
 -13904863.46008 -10834945.73808  22575100.31308  22575103.51608
 93 04 14 18 10 00.0000000  0  8 29 28 14 11 27 18 19 31
  -3938036.92008  -3068607.67808  21636526.00508  21636527.96608
  -9837483.34108  -7665563.44208  23312494.36908  23312497.46508
  23937522.50708  18652584.32407  24722699.08408  24722707.66707
        -0.25218        -0.11717  24648637.48918  24648645.31117
 -13804090.51608 -10756428.25308  22790984.83108  22790987.38708
 -24609422.71009 -19176172.96608  20163509.10309  20163510.74308
 -16986674.39709 -13236365.99708  20905367.45209  20905369.44008
 -14140437.68008 -11018509.84108  22530271.68408  22530274.91608
 93 04 14 18 12 00.0000000  0  8 29 28 14 11 27 18 19 31
  -3682440.39008  -2869441.81508  21685164.58908  21685166.62408
  -9835959.82908  -7664376.31208  23312784.39608  23312787.50308
  24378242.18808  18996000.90107  24806566.41408  24806575.21807
   -326872.79808   -254705.57107  24586435.37208  24586443.11907
 -14066009.74708 -10960520.97408  22741142.96708  22741145.66808
 -24595739.20009 -19165510.55208  20166113.14909  20166114.74908
 -17061579.51009 -13294733.61608  20891113.47909  20891115.53608
 -14369971.48308 -11197367.15208  22486592.85308  22486596.01008
 93 04 14 18 14 00.0000000  0  8 29 14 11 28 27 18 19 31
  -3421053.94308  -2665764.32608  21734905.05108  21734907.17308
  24817485.56308  19338267.08107  24890152.61908  24890161.83607
   -651604.51008   -507742.82307  24524640.71908  24524648.32107
  -9825904.19608  -7656540.78908  23314697.91308  23314701.00008
 -14326299.58408 -11163344.05608  22691611.45008  22691614.07508
 -24574730.95009 -19149140.54808  20170110.87809  20170112.50308
 -17133569.70109 -13350829.86408  20877414.23509  20877416.28908
 -14593101.24808 -11371234.31108  22444132.54808  22444135.57908
 93 04 14 18 16 00.0000000  0  8 29 14 11 28 27 18 19 31
  -3153887.75508  -2457583.13708  21785745.21608  21785747.46408
  25254995.33207  19679182.34007  24973408.97007  24973418.45407
   -974105.29008   -759041.64507  24463270.30508  24463277.89407
  -9807716.41208  -7642368.56208  23318159.00308  23318162.09308
 -14585431.04308 -11365264.50108  22642300.19208  22642302.81108
 -24546254.59509 -19126951.23708  20175529.71409  20175531.38008
 -17202985.85109 -13404920.38208  20864204.75309  20864206.76808
 -14809479.21308 -11539840.33408  22402957.12608  22402960.14908
 93 04 14 18 18 00.0000000  0  8 29 14 11 28 27 18 19 31
  -2880538.73108  -2244584.16208  21837761.92408  21837764.25308
  25691652.28607  20019432.99307  25056503.07707  25056512.95407
  -1293394.67108  -1007837.97307  24402511.33408  24402518.55007
  -9780348.07508  -7621042.63908  23323366.91808  23323369.97108
 -14842606.47608 -11565660.78508  22593361.18608  22593363.82408
 -24509761.89209 -19098515.42608  20182474.15509  20182475.82908
 -17268961.38409 -13456329.88008  20851650.06409  20851652.11208
 -15018604.71908 -11702795.09508  22363161.71208  22363164.70308
 93 04 14 18 20 00.0000000  0  8 29 14 11 28 27 18 19 31
  -2601108.05808  -2026846.24008  21890936.08008  21890938.40308
  26126959.43507  20358631.77707  25139340.43907  25139350.71207
  -1609452.40608  -1254116.09208  24342367.11608  24342374.22708
  -9743782.57708  -7592550.09608  23330325.22808  23330328.17208
 -15097660.00208 -11764403.64208  22544826.04608  22544828.55808
 -24465275.34409 -19063850.64108  20190939.71509  20190941.42808
 -17331616.79509 -13505152.29208  20839727.10709  20839729.20908
 -15220766.88608 -11860323.86808  22324691.27008  22324694.22208
 93 04 14 18 22 00.0000000  0  8 29 14 11 28 27 18 19 31
  -2315769.03908  -1804504.42508  21945234.44008  21945236.88708
  26559942.00007  20696019.05407  25221735.54907  25221746.34907
  -1922649.40508  -1498165.00708  24282767.13008  24282774.08208
  -9698703.34408  -7557423.45308  23338903.53408  23338906.75308
 -15351021.88208 -11961828.35908  22496612.75808  22496615.23908
 -24413129.26609 -19023217.39508  20200862.82309  20200864.50808
 -17391787.53409 -13552038.59108  20828277.10309  20828279.13608
 -15415673.73208 -12012199.15708  22287601.63308  22287604.45508
 93 04 14 18 24 00.0000000  0  7 29 11 28 27 18 19 31
  -2025119.23508  -1578024.35208  22000543.48308  22000546.09808
  -2232769.40308  -1739816.29008  24223752.79108  24223759.43708
  -9645472.16908  -7515944.66008  23349033.20408  23349036.41008
 -15603073.17608 -12158231.84508  22448648.99908  22448651.44208
 -24353537.40209 -18976782.24908  20212202.81909  20212204.53508
 -17449299.78509 -13596853.34908  20817332.87509  20817334.85608
 -15603349.19608 -12158439.63408  22251888.13008  22251890.86908
 93 04 14 18 26 00.0000000  0  7 29 11 28 27 18 19 31
  -1729381.51208  -1347579.67408  22056820.73308  22056823.42208
  -2539581.58508  -1978890.10508  24165367.92108  24165374.42508
  -9583858.52608  -7467934.05108  23360758.01608  23360761.07008
 -15853715.08108 -12353537.08908  22400953.35408  22400955.74208
 -24286566.51009 -18924597.20708  20224947.07009  20224948.80108
 -17504290.20709 -13639703.02408  20806868.47409  20806870.52508
 -15784134.12208 -12299310.90308  22217485.77108  22217488.59708
 93 04 14 18 28 00.0000000  0  8 29 02 11 28 27 18 19 31
  -1427913.51308  -1112669.84308  22114188.38508  22114191.13508
        -0.89318        -0.48818  24086196.59218  24086202.73418
  -2842734.68608  -2215112.71308  24107679.27008  24107685.93908
  -9513396.90008  -7413028.90908  23374166.30208  23374169.57608
 -16102746.39708 -12547587.32008  22353564.12408  22353566.44008
 -24211851.05909 -18866377.44408  20239165.05609  20239166.70808
 -17556725.82709 -13680561.96508  20796890.35409  20796892.47008
 -15957284.55508 -12434233.21508  22184536.22408  22184539.12608
 93 04 14 18 30 00.0000000  0  8 29 02 11 28 27 18 19 31
  -1120559.62908   -873173.61808  22172676.10208  22172678.93608
   -361974.94008   -282057.74708  24017315.02808  24017320.91008
  -3141479.72808  -2447900.46008  24050829.44808  24050835.93508
  -9433951.37508  -7351123.33908  23389284.19808  23389287.57808
 -16349890.65808 -12740167.10908  22306533.98408  22306536.33208
 -24128789.95809 -18801654.56808  20254971.02309  20254972.72208
 -17605692.64609 -13718717.93508  20787572.23209  20787574.37608
 -16122206.74508 -12562743.91308  22153152.58508  22153155.43108
 93 04 14 18 32 00.0000000  0  8 29 02 11 28 27 18 19 31
   -808125.68808   -629718.91608  22232130.64608  22232133.49808
   -721166.28108   -561946.69208  23948963.11508  23948968.54308
  -3436213.77508  -2677562.77908  23994743.10108  23994749.27808
  -9346036.26008  -7282618.08508  23406013.95408  23406017.22708
 -16595618.60808 -12931643.30108  22259773.41608  22259775.72908
 -24038147.41609 -18731024.08608  20272219.70509  20272221.48708
 -17652089.71109 -13754871.49908  20778743.13809  20778745.28308
 -16279523.79708 -12685328.53508  22123216.07608  22123218.86108
 93 04 14 18 34 00.0000000  0  8 29 02 11 28 27 18 19 31
   -490646.15808   -382332.60208  22292545.20708  22292547.98408
  -1077521.86508   -839625.96708  23881150.51108  23881156.00708
  -3726879.28408  -2904054.78708  23939430.65808  23939436.85808
  -9250127.56408  -7207884.08008  23424264.84608  23424267.89908
 -16839983.20208 -13122057.15708  22213272.19308  22213274.51808
 -23939988.33609 -18654536.56308  20290898.94209  20290900.69308
 -17695789.29809 -13788923.12608  20770427.41209  20770429.53408
 -16429110.87808 -12801889.80908  22094750.52508  22094753.13808
 93 04 14 18 36 00.0000000  0  8 29 02 11 28 27 18 19 31
   -167615.89808   -130621.05608  22354016.04008  22354018.94008
  -1430514.70908  -1114684.91008  23813977.82908  23813983.36908
  -4012686.79508  -3126761.32608  23885042.75208  23885048.99208
  -9145201.53808  -7126123.59208  23444231.57108  23444234.70308
 -17082263.87608 -13310847.17508  22167167.64308  22167169.88508
 -23834005.35909 -18571952.50908  20311066.89609  20311068.65008
 -17736445.50709 -13820603.30408  20762690.71509  20762692.83208
 -16570234.44608 -12911856.13408  22067895.47308  22067898.31008
 93 04 14 18 38 00.0000000  0  8 29 02 11 28 27 18 19 31
    160790.86108    125279.96408  22416510.12308  22416513.15008
  -1779847.68308  -1386891.96008  23747501.69008  23747507.14908
  -4293419.74608  -3345513.69908  23831620.66508  23831626.55108
  -9031368.63708  -7037422.71408  23465893.52408  23465896.63908
 -17322553.19608 -13498085.49908  22121442.08108  22121444.34908
 -23719788.08909 -18482952.13008  20332801.80609  20332803.63508
 -17774243.11409 -13850055.99908  20755498.14309  20755500.31308
 -16702768.86608 -13015129.58508  22042674.99008  22042677.72908
 93 04 14 18 40 00.0000000  0  8 29 02 11 28 27 18 19 31
    493864.05708    384817.15208  22479892.12808  22479895.27208
  -2126672.87008  -1657144.87808  23681502.65908  23681508.12408
  -4569619.15008  -3560733.53308  23779061.41408  23779067.10008
  -8909506.20108  -6942465.03508  23489083.21308  23489086.35308
 -17561624.78908 -13684374.94508  22075948.17808  22075950.41608
 -23597935.37509 -18388002.06308  20355989.70109  20355991.50408
 -17809779.14109 -13877746.42508  20748735.94909  20748738.08908
 -16827401.15808 -13112245.54708  22018958.15008  22018960.80208
 93 04 14 18 42 00.0000000  0  8 29 02 11 28 27 18 19 31
    832005.21308    648303.35608  22544238.55508  22544241.77908
  -2470076.25508  -1924731.44808  23616154.75708  23616160.12108
  -4840547.63508  -3771846.17108  23727505.19808  23727510.81208
  -8779444.66708  -6841118.45408  23513833.01608  23513836.42108
 -17799045.35408 -13869377.89408  22030768.49708  22030770.71708
 -23468235.15309 -18286937.05508  20380670.89609  20380672.75108
 -17842428.55909 -13903187.55108  20742522.94909  20742525.14108
 -16943536.42208 -13202740.44408  21996858.28608  21996860.97108
 93 04 14 18 44 00.0000000  0  8 29 02 11 28 27 18 19 31
   1175253.13208    915768.83708  22609556.71508  22609560.00208
  -2809412.04508  -2189148.46908  23551580.94108  23551586.22108
  -5105740.74008  -3978489.76008  23677040.21108  23677045.71508
  -8640420.30408  -6732787.84408  23540288.59708  23540291.90408
 -18034376.68608 -14052752.87508  21985986.39408  21985988.57608
 -23330565.78909 -18179662.32908  20406868.61609  20406870.53208
 -17871956.65709 -13926196.48408  20736904.00409  20736906.08308
 -17050608.68008 -13286173.24508  21976483.09408  21976485.68308
 93 04 14 18 46 00.0000000  0  8 29 02 11 28 27 18 19 31
   1522608.29208   1186434.74508  22675656.44408  22675660.02708
  -3146040.82208  -2451456.14508  23487522.36508  23487527.33008
  -5365832.31408  -4181158.14708  23627546.24408  23627551.67008
  -8493386.78108  -6618216.35808  23568268.25108  23568271.62408
 -18268646.34608 -14235300.59508  21941406.35608  21941408.56308
 -23185580.39409 -18066686.81608  20434458.42309  20434460.35608
 -17899389.28909 -13947572.60108  20731683.70409  20731685.89708
 -17149512.94008 -13363241.38208  21957662.16508  21957664.65408
 93 04 14 18 48 00.0000000  0  8 29 02 11 28 27 18 19 31
   1874723.74208   1460809.92108  22742662.31508  22742665.94108
  -3479160.51608  -2711029.48508  23424131.37908  23424136.19008
  -5620135.93008  -4379316.50108  23579153.68908  23579159.00808
  -8338578.71608  -6497586.81708  23597727.12408  23597730.59108
 -18501107.85408 -14416439.35808  21897170.28908  21897172.45408
 -23033051.36309 -17947833.14508  20463483.88909  20463485.87208
 -17923810.25009 -13966601.95508  20727036.63209  20727038.85108
 -17239640.12008 -13433470.22808  21940511.48908  21940513.80308
 93 04 14 18 50 00.0000000  0  8 29 02 11 28 27 18 19 31
   2231979.96608   1739190.87508  22810646.29708  22810650.05208
  -3808053.48208  -2967309.27808  23361544.77408  23361549.55008
  -5867893.73508  -4572374.22108  23532006.77208  23532012.00408
  -8174939.55208  -6370075.90308  23628866.97608  23628870.14208
 -18731217.70308 -14595745.66208  21853381.87108  21853383.96408
 -22872067.20909 -17822391.08408  20494118.25609  20494120.30608
 -17944972.38809 -13983091.96508  20723009.64809  20723011.82108
 -17320475.27808 -13496458.56408  21925128.90308  21925131.40108
 93 04 14 18 52 00.0000000  0  8 29 02 11 28 27 31 18 19
   2593839.76308   2021158.99208  22879506.32408  22879510.31408
  -4133341.91108  -3220780.39008  23299644.04408  23299648.81908
  -6109221.46608  -4760421.53008  23486083.28608  23486088.57508
  -8002764.01108  -6235913.27008  23661630.97608  23661634.22708
 -18959361.46008 -14773519.94508  21809967.41908  21809969.65608
 -17391971.10608 -13552169.53608  21911523.65808  21911526.20408
 -22702975.36609 -17690631.34008  20526295.41909  20526297.50608
 -17963084.79009 -13997205.57008  20719563.07609  20719565.24708
 93 04 14 18 54 00.0000000  0  8 29 02 11 28 27 18 19 31
   2959669.70108   2306220.70308  22949121.87408  22949125.99808
  -4455491.21308  -3471805.51008  23238340.96208  23238345.50408
  -6344766.58408  -4943962.91208  23441260.32108  23441265.37508
  -7823315.71508  -6096083.59108  23695778.72808  23695782.32508
 -19186263.85008 -14950326.95108  21766789.21808  21766791.43108
 -22526904.19109 -17553433.15308  20559800.70109  20559802.76908
 -17979224.10709 -14009781.71008  20716491.85409  20716494.09808
 -17455002.51008 -13601284.86808  21899529.15308  21899531.62008
 93 04 14 18 56 00.0000000  0  8 27 29 02 11 28 31 18 19
 -19410551.33908 -15125096.39308  21724108.79008  21724110.95008
   3330521.04608   2595195.17108  23019693.17708  23019697.28708
  -4773242.07908  -3719403.32208  23177874.82208  23177879.24608
  -6572953.54308  -5121770.66508  23397837.62908  23397842.66608
  -7634961.00208  -5949313.88108  23731621.54508  23731625.09908
 -17508182.23908 -13642723.58308  21889409.28208  21889411.87208
 -22342568.79409 -17409795.32108  20594878.67409  20594880.83908
 -17991723.36009 -14019521.44108  20714113.37709  20714115.55408
 93 04 14 18 58 00.0000000  0  8 27 29 02 11 28 31 18 19
 -19633032.10608 -15298458.01008  21681772.08308  21681774.26508
   3705636.24808   2887492.10208  23091075.62008  23091079.97208
  -5086889.55808  -3963803.70608  23118189.44108  23118193.83908
  -6794174.16608  -5294150.08908  23355740.52608  23355745.60608
  -7438640.60008  -5796337.14908  23768980.48608  23768984.01008
 -17551813.79008 -13676722.15808  21881106.68308  21881109.09308
 -22150353.84609 -17260017.58708  20631456.02309  20631458.28208
 -18001090.38809 -14026820.46908  20712330.85709  20712333.08008
 93 04 14 19 00 00.0000000  0  8 27 29 02 11 28 31 18 19
 -19853709.37608 -15470414.30608  21639778.59508  21639780.75008
   4084520.48708   3182725.90208  23163175.34008  23163179.81508
  -5396699.78508  -4205214.02208  23059234.44908  23059238.69608
  -7008823.23508  -5461408.84608  23314894.05008  23314898.97708
  -7234711.15008  -5637431.27808  23807787.03208  23807790.62208
 -17586728.22608 -13703928.18608  21874462.55408  21874465.04108
 -21950930.25809 -17104622.74308  20669405.28309  20669407.48808
 -18007921.72509 -14032143.63708  20711031.06509  20711033.22608
 93 04 14 19 02 00.0000000  0  8 27 29 02 11 28 31 18 19
 -20072494.76008 -15640896.39108  21598145.11708  21598147.17208
   4467536.47108   3481179.21108  23236061.49708  23236066.06608
  -5702313.58308  -4443354.39708  23001077.87008  23001082.15708
  -7216209.40808  -5623008.20908  23275429.57608  23275434.39908
  -7022839.30208  -5472336.53408  23848105.15208  23848108.79808
 -17612232.25908 -13723801.45008  21869609.20108  21869611.67508
 -21744079.67009 -16943440.63908  20708767.83509  20708769.95508
 -18011933.24909 -14035269.55908  20710267.72109  20710269.96408
 93 04 14 19 04 00.0000000  0  8 29 02 11 28 27 31 18 19
   4854662.55808   3782835.17608  23309729.58708  23309734.53708
  -6004068.50408  -4678487.83808  22943655.52408  22943659.89608
  -7415963.94908  -5778660.86908  23237417.31408  23237422.21508
  -6803290.92208  -5301260.11208  23889883.93508  23889887.79908
 -20288945.85608 -15809559.55708  21556955.87608  21556957.84508
 -17627919.80708 -13736025.52308  21866624.01308  21866626.48508
 -21529126.59009 -16775944.91708  20749672.26209  20749674.37008
 -18012838.27809 -14035974.85708  20710095.54909  20710097.75908
 93 04 14 19 06 00.0000000  0  8 29 02 11 28 27 31 18 19
   5245356.08508   4087270.91008  23384076.65908  23384081.74108
  -6302123.26008  -4910738.03008  22886937.39208  22886941.61008
  -7608295.86308  -5928529.69808  23200817.63408  23200822.44808
  -6576263.34108  -5124355.71908  23933085.98908  23933089.89308
 -20503393.52708 -15976661.61208  21516147.78108  21516149.86708
 -17634296.72208 -13740994.56708  21865410.61608  21865413.09908
 -21307098.81909 -16602936.45908  20791922.81309  20791925.09008
 -18010671.58909 -14034286.59008  20710507.89809  20710510.14908
 93 04 14 19 08 00.0000000  0  8 29 02 11 28 27 31 18 19
   5639579.85308   4394457.43508  23459095.73808  23459100.79908
  -6595927.60408  -5139676.22008  22831028.16508  22831032.18008
  -7792968.09408  -6072429.96508  23165675.48808  23165680.19408
  -6341832.72608  -4941682.71308  23977696.91408  23977700.77808
 -20715850.44208 -16142212.44008  21475718.58508  21475720.66508
 -17631278.64308 -13738642.85808  21865984.90908  21865987.43108
 -21077633.26309 -16424132.32808  20835588.79509  20835591.08908
 -18005377.12709 -14030161.09308  20711515.42709  20711517.72208
 93 04 14 19 10 00.0000000  0  8 29 02 11 28 27 31 18 19
   6037715.49208   4704692.10508  23534859.26108  23534864.37108
  -6884731.55608  -5364718.01908  22776070.38908  22776074.42408
  -7969444.44608  -6209943.83608  23132093.16308  23132097.75908
  -6099652.10208  -4752970.75508  24023782.42108  24023786.34908
 -20926190.07108 -16306113.42808  21435692.19308  21435694.40208
 -17618292.12108 -13728523.52908  21868456.23508  21868458.71408
 -20840566.19309 -16239404.95208  20880701.33609  20880703.65608
 -17996881.72309 -14023541.35908  20713132.14609  20713134.36208
 93 04 14 19 12 00.0000000  0  8 29 02 11 28 27 31 18 19
   6439526.30808   5017790.51208  23611322.03608  23611327.42708
  -7169752.21108  -5586811.82008  22721832.71608  22721836.64608
  -8137957.97508  -6341252.94808  23100025.94108  23100030.62508
  -5850201.71808  -4558594.04408  24071251.27608  24071255.26808
 -21134286.78808 -16468266.68108  21396092.75908  21396094.79808
 -17595741.77408 -13710951.87208  21872747.35808  21872749.84208
 -20596093.39509 -16048906.89208  20927223.06809  20927225.55308
 -17985680.73209 -14014813.38108  20715263.64909  20715265.95108
 93 04 14 19 14 00.0000000  0  8 29 02 11 28 27 18 19 31
   6844366.60608   5333249.45808  23688361.17508  23688367.02108
  -7450695.35408  -5805728.34208  22668370.88508  22668374.80108
  -8298345.56808  -6466230.15608  23069505.11708  23069509.82208
  -5594080.98008  -4359019.68908  24119989.73008  24119993.75708
 -21340060.61908 -16628609.89008  21356935.29308  21356937.29708
 -20344751.71609 -15853056.46708  20975051.98609  20975054.54808
 -17971291.12409 -14003600.76808  20718001.99209  20718004.31608
 -17563869.97508 -13686116.74408  21878812.51408  21878815.03408
 93 04 14 19 16 00.0000000  0  8 29 02 11 28 27 18 19 31
   7252082.39008   5650948.96208  23765947.49808  23765953.67108
  -7727541.49308  -6021452.40508  22615688.56708  22615692.44608
  -8450714.89208  -6584959.38808  23040510.19408  23040514.70808
  -5331192.43708  -4154171.74008  24170016.15308  24170020.22308
 -21544062.01308 -16787571.98308  21318115.04108  21318117.09708
 -20086892.45209 -15652127.40908  21024121.16809  21024123.82108
 -17954066.03809 -13990178.68908  20721279.89509  20721282.18708
 -17522768.39208 -13654089.57708  21886633.87708  21886636.54708
 93 04 14 19 18 00.0000000  0  8 29 02 11 28 27 18 19 31
   7662231.34208   5970544.40508  23843997.16108  23844003.48908
  -8000614.48008  -6234236.36608  22563724.40308  22563728.19408
  -8595208.02208  -6697551.33308  23013013.99408  23013018.40808
  -5061626.68408  -3944120.76808  24221313.07908  24221317.24708
 -21746247.40108 -16945119.00608  21279640.40208  21279642.53208
 -19822190.71309 -15445866.56508  21074492.36809  21074495.05508
 -17934261.43509 -13974746.60008  20725048.60909  20725050.92508
 -17472525.30008 -13614939.17308  21896194.86208  21896197.41808
 93 04 14 19 20 00.0000000  0  8 29 02 11 28 27 18 19 31
   8075105.03208   6292262.97508  23922565.32108  23922572.03108
  -8269622.37108  -6443852.72208  22512533.85008  22512537.47708
  -8731222.03708  -6803536.18508  22987131.24008  22987135.74108
  -4785459.44208  -3728925.76908  24273866.04708  24273870.26708
 -21946252.40608 -17100967.04208  21241580.74308  21241582.81908
 -19550659.90708 -15234284.38108  21126163.19608  21126165.95408
 -17911350.68609 -13956894.13808  20729408.42009  20729410.75908
 -17412842.90608 -13568433.47308  21907552.09308  21907554.74308
 93 04 14 19 22 00.0000000  0  8 29 02 11 28 27 18 19 31
   8490870.70808   6616234.96308  24001683.98108  24001691.10708
  -8534452.31308  -6650213.54608  22462138.16908  22462141.84808
  -8858752.40408  -6902910.42508  22962863.02208  22962867.44208
  -4503310.31208  -3509069.54708  24327557.48908  24327561.67008
 -22144241.26808 -17255244.05008  21203904.68308  21203906.69408
 -19272612.79208 -15017624.54908  21179074.05108  21179076.85708
 -17885700.92109 -13936907.37908  20734289.49609  20734291.82608
 -17343780.75908 -13514618.88108  21920694.27308  21920696.80708
 93 04 14 19 24 00.0000000  0  8 29 02 11 28 27 18 19 31
   8909580.89808   6942501.29808  24081362.83208  24081370.39708
  -8794386.81808  -6852759.74108  22412674.14708  22412677.81008
  -8977082.33708  -6995115.49408  22940345.50108  22940349.98108
  -4214098.95008  -3283710.29607  24382592.59508  24382596.82307
 -22339428.01008 -17407337.57308  21166761.82708  21166763.83708
 -18987585.91308 -14795525.94908  21233312.92408  21233315.89508
 -17856393.33109 -13914070.37308  20739866.63009  20739868.96608
 -17264646.22608 -13452955.67208  21935753.09808  21935755.66908
 93 04 14 19 26 00.0000000  0  8 29 02 11 28 27 18 19 31
   9331422.61208   7271207.70308  24161637.61108  24161645.56408
  -9049335.20208  -7051420.65908  22364158.94608  22364162.66608
  -9085742.55608  -7079785.71208  22919668.09308  22919672.55208
  -3917949.67908  -3052944.87107  24438948.12708  24438952.43807
 -22531257.51508 -17556815.08408  21130257.87708  21130259.85808
 -18695345.78508 -14567806.63908  21288924.58608  21288927.66108
 -17823117.69309 -13888141.39208  20746198.83409  20746201.09808
 -17175629.29708 -13383591.89108  21952692.57708  21952695.12108
 93 04 14 19 28 00.0000000  0  8 29 02 11 28 27 18 19 31
   9755332.56208   7601525.62508  24242306.17908  24242314.52308
  -9300011.18408  -7246752.42408  22316456.82308  22316460.43508
  -9185607.37408  -7157602.38108  22900664.37608  22900668.85408
  -3616005.40408  -2817663.83807  24496406.39208  24496410.64107
 -22720800.64408 -17704511.02508  21094189.11708  21094191.01008
 -18396722.28508 -14335113.27908  21345751.02908  21345754.09808
 -17786847.05709 -13859878.63708  20753100.95409  20753103.40708
 -17077410.75508 -13307058.02208  21971382.92808  21971385.58708
 93 04 14 19 30 00.0000000  0  8 29 02 11 28 27 18 19 31
  10181250.03008   7933407.79708  24323356.83608  24323365.47908
  -9546732.88508  -7439002.93808  22269506.99908  22269510.64508
  -9276747.14408  -7228620.33808  22883321.12308  22883325.49708
  -3308346.61908  -2577929.94007  24554951.92908  24554956.35407
 -22908298.46508 -17850613.23808  21058509.42208  21058511.37308
 -18091808.90908 -14097518.74308  21403774.33708  21403777.41908
 -17747728.53409 -13829396.74908  20760545.00109  20760547.47208
 -16970078.18808 -13223422.32608  21991807.66008  21991810.41508
 93 04 14 19 32 00.0000000  0  8 02 29 11 28 27 18 19 31
  -9788965.06208  -7627755.14308  22223411.72608  22223415.26008
  10609447.69008   8267066.68508  24404841.35808  24404850.45708
  -9358490.20208  -7292316.18608  22867765.99908  22867770.20408
  -2994778.62708  -2333591.48907  24614622.40008  24614626.89507
 -23092765.16208 -17994353.52008  21023406.67408  21023408.61608
 -17780639.20308 -13855049.15308  21462988.16608  21462991.31708
 -17705283.22309 -13796322.54808  20768622.09909  20768624.53908
 -16853343.22708 -13132460.10008  22014021.61708  22014024.47508
 93 04 14 19 34 00.0000000  0  8 02 11 29 28 18 31 27 19
 -10026527.86508  -7812868.89908  22178205.05908  22178208.50208
  -9430577.65408  -7348488.18308  22854047.97108  22854052.43908
  11039960.35708   8602529.43707  24486766.53308  24486775.78907
  -2675105.76208  -2084495.97908  24675454.00208  24675458.68608
 -17463065.23208 -13607589.24108  21523420.79408  21523424.02808
 -16727019.11508 -13034025.80508  22038060.38108  22038063.14408
 -23274173.78908 -18135710.87308  20988885.61208  20988887.69908
 -17659155.66409 -13760379.07308  20777399.94609  20777402.45108
 93 04 14 19 36 00.0000000  0  8 02 11 29 28 18 31 27 19
 -10259720.19308  -7994577.08608  22133829.83008  22133833.31708
  -9493584.82708  -7397584.63108  22842058.11008  22842062.50008
  11471868.04708   8939079.19007  24568957.18208  24568966.74407
  -2350159.26208  -1831291.15908  24737289.59208  24737294.32808
 -17139533.06008 -13355486.58808  21584987.13908  21584990.52008
 -16591653.70108 -12928546.35408  22063819.74308  22063822.39208
 -23453423.46108 -18275385.91308  20954775.53108  20954777.57608
 -17609885.67409 -13721986.96408  20786775.78909  20786778.33508
 93 04 14 19 38 00.0000000  0  8 02 11 29 28 18 31 27 19
 -10488566.27408  -8172898.59208  22090281.79608  22090285.29308
  -9547422.80308  -7439536.25508  22831813.07608  22831817.30208
  11905139.01208   9276691.17107  24651407.15008  24651417.17707
  -2020115.55908  -1574114.45807  24800095.16908  24800099.81307
 -16810669.00508 -13099229.23808  21647568.23208  21647571.65208
 -16447498.64708 -12816217.82408  22091251.52208  22091254.19608
 -23630396.64108 -18413287.05808  20921098.68108  20921100.60608
 -17557567.18109 -13681219.41108  20796731.71509  20796734.16608
 93 04 14 19 40 00.0000000  0  8 02 11 29 28 18 31 27 19
 -10712715.06008  -8347559.87808  22047627.69908  22047631.04208
  -9591371.45608  -7473781.91308  22823449.79308  22823454.28908
  12340595.33308   9616005.96907  24734272.99008  24734283.47707
  -1684638.50007  -1312703.96607  24863934.37807  24863939.21807
 -16475565.28008 -12838109.81908  21711336.64608  21711340.09908
 -16293932.13808 -12696555.68508  22120474.30708  22120477.09908
 -23803949.17408 -18548522.77508  20888072.67308  20888074.61308
 -17501526.29309 -13637551.28608  20807396.08809  20807398.61608
 93 04 14 19 42 00.0000000  0  8 02 11 18 29 28 31 27 19
 -10932605.83108  -8518903.23708  22005783.71208  22005787.05708
  -9625781.14508  -7500594.61408  22816901.77708  22816906.34908
 -16134585.24308 -12572411.47808  21776223.21908  21776226.88008
  12777240.12807   9956246.78207  24817365.17407  24817376.18807
  -1343815.64207  -1047127.89207  24928790.80307  24928795.73607
 -16131344.91108 -12569864.40508  22151413.64808  22151416.44808
 -23974746.98308 -18681611.96808  20855570.92708  20855572.93208
 -17441984.71409 -13591155.33708  20818726.55209  20818729.13408
 93 04 14 19 44 00.0000000  0  8 02 11 18 29 28 31 27 19
 -11147708.34508  -8686515.48308  21964851.02808  21964854.30708
  -9650220.61008  -7519638.31308  22812251.09108  22812255.58608
 -15787925.21308 -12302287.17708  21842190.76908  21842194.47308
  13215435.47407  10297695.70807  24900752.50807  24900763.98107
   -997786.74607   -777495.11007  24994638.00707  24994642.82807
 -15959433.64208 -12435907.63108  22184127.33208  22184130.17608
 -24142088.30308 -18812007.79908  20823726.97908  20823729.00808
 -17378693.33609 -13541837.46008  20830770.43109  20830773.14908
 93 04 14 19 46 00.0000000  0  8 02 11 18 29 28 27 19 31
 -11358630.51908  -8850870.32708  21924713.77108  21924717.13408
  -9665215.35908  -7531322.46008  22809397.74808  22809402.06808
 -15436158.51708 -12028183.67808  21909130.01508  21909133.87208
  13654744.64407  10640012.45607  24984351.92707  24984363.85107
   -647454.06807   -504508.74107  25061304.30207  25061308.92907
 -24306727.96808 -18940298.43608  20792397.05208  20792399.09308
 -17311755.88009 -13489678.49508  20843508.34909  20843510.97908
 -15779122.47008 -12295405.49308  22218439.45308  22218442.32108
 93 04 14 19 48 00.0000000  0  8 02 11 18 29 28 31 27 19
 -11565186.00708  -9011822.54608  21885407.37608  21885410.84108
  -9670505.48708  -7535444.57108  22808390.90608  22808395.39608
 -15079138.56708 -11749986.75708  21977068.94008  21977073.03908
  14094814.75707  10982922.02907  25068096.21607  25068108.59907
   -292603.17207   -228001.66907  25128830.48607  25128835.12307
 -15590295.66808 -12148267.80408  22254372.12608  22254375.00408
 -24468327.13808 -19066219.86208  20761645.74808  20761647.67208
 -17241477.66409 -13434916.34808  20856881.96409  20856884.64508
 93 04 14 19 50 00.0000000  0  8 02 11 18 31 29 28 27 19
 -11767283.30808  -9169300.84708  21846949.63208  21846952.89008
  -9666283.23008  -7532154.45308  22809194.44008  22809198.84508
 -14717323.60508 -11468053.48208  22045920.47208  22045924.55208
 -15392973.78208 -11994510.58808  22291921.39508  22291924.28608
  14535669.57807  11326442.89407  25151989.74307  25152003.07407
     66519.88007     51834.42207  25197169.49007  25197174.02607
 -24626861.51308 -19189753.12908  20731477.67208  20731479.70908
 -17167888.93109 -13377574.58308  20870885.47009  20870888.22908
 93 04 14 19 52 00.0000000  0  8 02 11 18 31 29 28 27 19
 -11965496.31808  -9323752.40808  21809230.82708  21809234.05708
  -9652557.41808  -7521459.00508  22811806.36708  22811810.80408
 -14350543.15108 -11182251.00408  22115716.86508  22115721.00008
 -15187344.77708 -11834280.30108  22331051.30908  22331054.35608
  14977013.12707  11670344.35307  25235976.49907  25235990.66707
    429633.56507    334780.05707  25266267.85507  25266272.45607
 -24782487.04408 -19311019.77608  20701863.15208  20701865.11808
 -17091006.65009 -13317666.41208  20885515.67709  20885518.44808
 93 04 14 19 54 00.0000000  0  7 02 11 18 28 31 27 19
 -12158994.68808  -9474530.23308  21772409.19208  21772412.39908
  -9628889.46908  -7503016.45608  22816310.13408  22816314.61208
 -13979117.18308 -10892828.66908  22186397.27908  22186401.43108
    797097.89507    621115.82307  25336193.73107  25336198.80307
 -14973188.60108 -11667405.44908  22371803.85808  22371806.82008
 -24934605.85508 -19429553.90608  20672915.90508  20672917.87508
 -17010282.33109 -13254764.44508  20900877.08409  20900879.93308
 93 04 14 19 56 00.0000000  0  8 16 02 11 28 18 27 19 31
        -0.92718        -0.58618  23852544.61418  23852549.74318
 -12348045.27408  -9621842.25108  21736434.02908  21736437.15008
  -9595384.35808  -7476908.56008  22822686.02908  22822690.34208
   1168554.74207    910562.69607  25406879.58707  25406884.72507
 -13602885.46208 -10599661.62108  22257992.19808  22257996.43508
 -25083163.98608 -19545313.49108  20644646.25608  20644648.23608
 -16925632.59409 -13188803.71508  20916985.52309  20916988.30208
 -14750530.51108 -11493905.73408  22414174.42208  22414177.36108
 93 04 14 19 58 00.0000000  0  7 16 02 11 18 31 27 19
     77014.28308     60010.96608  23867200.27908  23867205.61908
 -12532730.50608  -9765752.70408  21701289.35208  21701292.53908
  -9552081.54708  -7443166.06608  22830926.32608  22830930.57008
 -13221783.64808 -10302699.70508  22330513.77008  22330518.23608
 -14519676.28208 -11314019.41608  22458104.68908  22458107.54308
 -25228338.50408 -19658436.49908  20617020.38608  20617022.38908
 -16837212.17409 -13119904.78708  20933811.50409  20933814.27408
 93 04 14 20 00 00.0000000  0  7 02 16 11 18 31 27 19
 -12712101.33508  -9905522.06608  21667156.20208  21667159.30608
    161836.53008    126105.85708  23883341.78108  23883347.07808
  -9498208.20808  -7401186.75408  22841177.99608  22841182.23408
 -12835651.54808 -10001818.09408  22403992.72508  22403997.32108
 -14280448.85008 -11127608.53708  22503628.18708  22503631.13208
 -25369108.68008 -19768127.53808  20590232.79908  20590234.78308
 -16744405.82609 -13047588.23508  20951472.00209  20951474.83108
 93 04 14 20 02 00.0000000  0  7 02 16 11 18 31 27 19
 -12886938.55608 -10041758.73308  21633885.74108  21633888.76908
    254149.20608    198037.46208  23900908.44108  23900914.04508
  -9434410.26008  -7351473.99308  22853318.23508  22853322.53308
 -12445103.34508  -9697495.38308  22478312.00808  22478316.76408
 -14033202.41008 -10934949.07008  22550677.69508  22550680.74908
 -25506030.08408 -19874819.52108  20564177.45608  20564179.47108
 -16647570.70209 -12972132.37508  20969899.20509  20969902.03408
 93 04 14 20 04 00.0000000  0  7 02 16 11 18 19 31 27
 -13058311.29108 -10175295.79008  21601274.48308  21601277.55508
    353073.02308    275120.60408  23919733.28708  23919738.78208
  -9361424.83908  -7294602.18008  22867206.84108  22867211.19108
 -12051044.94208  -9390437.47108  22553299.27008  22553304.21408
 -16547545.68209 -12894190.88208  20988933.43509  20988936.28808
 -13778069.96208 -10736144.66608  22599227.80208  22599231.00108
 -25640112.61108 -19979299.39408  20538662.31508  20538664.35808
 93 04 14 20 06 00.0000000  0  7 02 16 11 18 19 31 27
 -13225181.37308 -10305324.29308  21569520.04908  21569523.09808
    458735.64708    357454.72908  23939840.53908  23939846.23708
  -9278743.65808  -7230175.26608  22882940.46008  22882944.90308
 -11652965.06108  -9080245.95108  22629051.78108  22629056.89008
 -16443612.54009 -12813204.11608  21008711.35209  21008714.19408
 -13515586.97108 -10531612.56608  22649176.76508  22649179.91408
 -25770223.03608 -20080684.14608  20513903.20708  20513905.20508
 93 04 14 20 08 00.0000000  0  7 02 16 11 18 19 31 27
 -13387238.22408 -10431602.24508  21538681.56908  21538684.57408
    571952.74608    445675.50708  23961385.18308  23961391.13008
  -9186075.19708  -7157966.05108  22900574.73308  22900579.09408
 -11250852.96108  -8766912.45108  22705571.70208  22705576.90708
 -16335418.53409 -12728897.19208  21029300.05009  21029302.93508
 -13245977.56508 -10321527.41108  22700481.85208  22700484.90808
 -25896014.83308 -20178703.72708  20489965.79008  20489967.86108
 93 04 14 20 10 00.0000000  0  7 02 19 16 11 18 31 27
 -13544742.10508 -10554332.42508  21508709.50208  21508712.53408
 -16222930.76809 -12641244.48208  21050705.78409  21050708.67008
    692018.35908    539232.74908  23984233.23408  23984239.11208
  -9083372.07808  -7077937.63908  22920118.52608  22920122.73608
 -10844769.08708  -8450484.07808  22782847.35508  22782852.68708
 -12968294.22908 -10105150.90108  22753323.28608  22753326.33808
 -26017687.27008 -20273513.41208  20466812.30508  20466814.29308
 93 04 14 20 12 00.0000000  0  7 02 19 16 11 18 31 27
 -13698173.47308 -10673889.20708  21479512.32108  21479515.33708
 -16105946.97909 -12550088.37108  21072967.18509  21072970.04508
    818851.29308    638063.16208  24008369.13808  24008375.14708
  -8970831.31608  -6990243.55508  22941534.44208  22941538.55008
 -10434740.92508  -8130982.26408  22860873.50608  22860879.07008
 -12683119.70908  -9882937.11008  22807590.35708  22807593.42708
 -26135140.74609 -20365035.58708  20444461.68009  20444463.68108
 93 04 14 20 14 00.0000000  0  7 02 19 16 11 18 31 27
 -13847563.80708 -10790297.13408  21451084.30108  21451087.19208
 -15985485.94509 -12456222.72408  21095890.16709  21095893.17908
    951763.31508    741630.55808  24033661.72708  24033668.01708
  -8849180.36608  -6895450.62708  22964683.77508  22964688.16808
 -10021832.27108  -7809235.93008  22939447.94908  22939453.65708
 -12391368.97208  -9655599.00208  22863108.73508  22863111.93508
 -26248735.76309 -20453551.17408  20422845.29509  20422847.28108
 93 04 14 20 16 00.0000000  0  7 02 19 16 11 27 18 31
 -13992386.75808 -10903146.07008  21423525.33908  21423528.23008
 -15861101.51809 -12359299.87608  21119559.78709  21119562.80808
   1090933.06908    850074.12908  24060145.22308  24060151.47008
  -8718105.79408  -6793314.57708  22989626.38408  22989630.78808
 -26358327.73308 -20538947.49208  20401990.56808  20401992.61108
  -9605710.53908  -7484985.91608  23018633.99308  23018639.69208
 -12092723.03308  -9422887.99408  22919939.34908  22919942.48008
 93 04 14 20 18 00.0000000  0  8 02 19 16 11 26 27 18 31
 -14133553.01608 -11013145.64708  21396662.18008  21396665.08308
 -15732606.05709 -12259173.60908  21144011.75709  21144014.78208
   1236363.07608    963395.77408  24087819.92808  24087826.10908
  -8577575.32408  -6683810.29508  23016368.44008  23016372.74008
         0.06317        -0.00217  25458385.44617  25458388.78517
 -26463608.99009 -20620984.80708  20381956.21709  20381958.21108
  -9186753.52508  -7158526.60108  23098359.17708  23098365.24508
 -11787499.07408  -9185051.26608  22978021.41108  22978024.61808
 93 04 14 20 20 00.0000000  0  8 02 19 16 11 26 27 18 31
 -14270177.89309 -11119606.47908  21370663.28709  21370666.15108
 -15599231.01109 -12155245.07808  21169392.28309  21169395.35908
   1388307.68208   1081793.78608  24116734.30808  24116740.82108
  -8427101.42208  -6566557.86808  23045002.74808  23045006.81608
   -394973.00407   -307771.23007  25383224.43307  25383228.13207
 -26563786.38009 -20699045.09308  20362893.10909  20362895.02708
  -8764241.86508  -6829297.49108  23178761.00408  23178767.40108
 -11474805.59908  -8941394.13908  23037525.17708  23037528.35808
 93 04 14 20 22 00.0000000  0  8 02 19 16 11 26 27 18 31
 -14401857.95409 -11222214.21308  21345605.25409  21345608.05608
 -15461193.91409 -12047683.76608  21195659.84609  21195662.89008
   1546840.64408   1205325.52808  24146902.31408  24146909.15608
  -8266899.21508  -6441724.95608  23075488.09108  23075492.31608
   -787230.48807   -613426.47207  25308580.32607  25308584.05807
 -26659018.59909 -20773252.00608  20344770.98909  20344772.98508
  -8338657.58808  -6497674.17408  23259747.61608  23259754.15408
 -11155502.71508  -8692586.82808  23098286.81908  23098289.87208
 93 04 14 20 24 00.0000000  0  8 02 19 16 11 26 27 18 31
 -14529763.33609 -11321880.63108  21321265.65709  21321268.41208
 -15318925.76909 -11936825.54408  21222732.57909  21222735.66308
   1710959.01408   1333209.52708  24178133.44408  24178140.36008
  -8097718.07408  -6309895.49308  23107682.22308  23107686.41508
  -1177810.45407   -917774.48007  25234255.29607  25234259.09307
 -26749789.04809 -20843982.21008  20327498.01509  20327499.95208
  -7910593.80708  -6164118.82708  23341206.23308  23341212.85308
 -10830427.25708  -8439281.39708  23160146.71408  23160149.71608
 93 04 14 20 26 00.0000000  0  8 02 19 16 11 26 27 18 31
 -14653639.14509 -11418407.11308  21297692.78409  21297695.51208
 -15172713.16009 -11822893.73608  21250555.98809  21250559.21408
   1880313.33408   1465173.50408  24210360.91508  24210367.66908
  -7919524.48808  -6171043.36508  23141591.38208  23141595.54008
  -1566339.17807  -1220524.04507  25160320.66307  25160324.49607
 -26835946.41009 -20911117.80408  20311102.77009  20311104.72408
  -7479980.64908  -5828576.99708  23423149.88508  23423156.63208
 -10498977.68008  -8181009.13308  23223219.43708  23223222.58308
 93 04 14 20 28 00.0000000  0  8 02 19 16 11 26 27 18 31
 -14773127.00309 -11511514.41108  21274954.85109  21274957.58308
 -15022101.33209 -11705533.97508  21279216.61109  21279219.74408
   2055419.44408   1601619.35608  24243682.88808  24243689.65908
  -7732199.73108  -6025076.06308  23177238.16908  23177242.36908
  -1952054.79807  -1521081.58207  25086921.46107  25086925.21207
 -26917252.52409 -20974473.21408  20295630.74109  20295632.68008
  -7046949.61408  -5491151.16808  23505553.76408  23505560.55408
 -10161418.06708  -7917975.79908  23287454.81708  23287458.15908
 93 04 14 20 30 00.0000000  0  8 02 19 16 11 26 27 18 31
 -14888538.70309 -11601445.47508  21252992.62009  21252995.36108
 -14866570.98409 -11584341.59008  21308813.12709  21308816.29008
   2236338.18208   1742594.54308  24278110.83208  24278117.93308
  -7535553.54308  -5871845.31308  23214658.60608  23214662.97808
  -2334894.54207  -1819398.19508  25014069.72107  25014073.30608
 -26993293.22909 -21033725.70708  20281160.65009  20281162.53008
  -6611629.64108  -5151941.80408  23588393.21708  23588400.11508
  -9817731.03908  -7650167.89708  23352856.45708  23352859.87408
 93 04 14 20 32 00.0000000  0  8 02 19 16 11 26 27 18 31
 -14999748.61809 -11688102.42908  21231829.98509  21231832.66708
 -14706904.54308 -11459926.26608  21339196.60908  21339199.81408
   2422350.23608   1887538.51608  24313508.27408  24313515.09708
  -7330145.76808  -5711787.35608  23253746.48908  23253750.83708
  -2714810.25907  -2115436.32908  24941774.29507  24941777.54808
 -27064377.05909 -21089115.70408  20267633.88509  20267635.78408
  -6174335.26208  -4811193.98908  23671608.26008  23671615.58708
  -9468521.82308  -7378057.01508  23419309.09508  23419312.43108
 93 04 14 20 34 00.0000000  0  8 02 19 16 11 26 27 18 31
 -15107906.72609 -11772381.36108  21211248.12009  21211250.74108
 -14543586.38008 -11332665.46408  21370275.18508  21370278.28008
   2612407.78208   2035634.80808  24349675.27408  24349682.41808
  -7116966.28008  -5545673.53108  23294313.09208  23294317.60508
  -3092753.45708  -2409937.42007  24869853.98808  24869857.26407
 -27131311.58709 -21141272.47308  20254896.60109  20254898.52708
  -5735861.88308  -4469527.53908  23755047.70708  23755055.37408
  -9114714.65708  -7102363.30608  23486636.42308  23486639.88208
 93 04 14 20 36 00.0000000  0  8 02 19 16 11 26 27 18 31
 -15213180.92909 -11854413.11208  21191215.06509  21191217.65208
 -14376554.92009 -11202511.18508  21402060.37409  21402063.46708
   2806098.59408   2186562.23607  24386533.65508  24386540.95307
  -6895957.72308  -5373459.11508  23336369.80908  23336373.95408
  -3468238.72308  -2702523.27007  24798401.36308  24798404.53607
 -27193868.65609 -21190018.23708  20242992.43309  20242994.33708
  -5296633.42408  -4127272.78708  23838631.07408  23838639.04708
  -8756416.42208  -6823170.03908  23554818.31308  23554821.81908
 93 04 14 20 38 00.0000000  0  8 02 19 16 11 26 27 18 31
 -15314007.01209 -11932978.79908  21172028.36609  21172031.02908
 -14204788.88509 -11068667.62108  21434746.54509  21434749.63408
   3004970.49508   2341526.80808  24424378.30208  24424385.66508
  -6666073.75908  -5194328.78008  23380115.39508  23380119.56708
  -3840138.32508  -2992315.13107  24727631.18708  24727634.28607
 -27250831.92609 -21234405.19108  20232152.68709  20232154.60908
  -4855658.99808  -3783657.62908  23922546.56708  23922555.03308
  -8392607.76708  -6539682.96208  23624048.91808  23624052.56408
 93 04 14 20 40 00.0000000  0  8 02 19 16 11 26 27 18 31
 -15410312.74409 -12008022.13608  21153702.06809  21153704.62008
 -14027652.56108 -10930639.39408  21468454.36108  21468457.66908
   3209310.26808   2500752.04108  24463263.28508  24463270.81708
  -6427229.37208  -5008216.31908  23425565.82008  23425570.30808
  -4208038.05308  -3278990.18407  24657621.94208  24657625.23807
 -27301673.86909 -21274022.27308  20222477.76809  20222479.69208
  -4412381.16608  -3438247.66908  24006900.60308  24006909.33708
  -8023328.04708  -6251932.72808  23694320.70908  23694324.44408
 93 04 14 20 42 00.0000000  0  8 02 19 16 11 26 27 18 31
 -15503151.20809 -12080363.69408  21136035.34409  21136037.90408
 -13846601.13508 -10789560.43708  21502907.35608  21502910.72308
   3417444.96708   2662934.35608  24502870.24208  24502878.03608
  -6180529.17108  -4815982.47508  23472511.45008  23472515.92908
  -4572807.34008  -3563225.91108  24588208.61508  24588211.87208
 -27347633.78109 -21309835.17708  20213731.84009  20213733.75808
  -3968091.11408  -3092049.00008  24091447.40608  24091456.31408
  -7649472.04608  -5960616.57008  23765463.26508  23765467.10808
 93 04 14 20 44 00.0000000  0  8 02 19 16 11 26 27 18 31
 -15592663.13709 -12150113.15308  21119001.78809  21119004.25308
 -13661507.95208 -10645332.05508  21538129.40508  21538132.74908
   3629181.98108   2827923.67507  24543162.88508  24543170.62607
  -5926225.96308  -4617824.20608  23520903.69208  23520908.24308
  -4934084.49308  -3844740.45308  24519459.80608  24519463.07008
 -27388493.48009 -21341673.89008  20205956.47709  20205958.40008
  -3523310.15608  -2745467.88008  24176087.49408  24176096.90908
  -7271443.73208  -5666049.26308  23837399.93008  23837403.66808
 93 04 14 20 46 00.0000000  0  8 02 19 16 11 26 27 18 31
 -15678150.20009 -12216726.34408  21102734.03009  21102736.48808
 -13471506.71308 -10497279.22908  21574285.57408  21574288.76608
   3845200.06908   2996248.87307  24584270.36308  24584278.19207
  -5663718.25008  -4413272.82708  23570857.28908  23570861.81708
  -5291127.36008  -4122955.52808  24451516.72108  24451520.02308
 -27423139.79309 -21368671.00708  20199363.50209  20199365.41208
  -3077263.88908  -2397900.89308  24260968.50908  24260978.40908
  -6888711.30008  -5367816.39408  23910231.78408  23910235.51208
 93 04 14 20 48 00.0000000  0  8 02 19 16 11 26 27 18 31
 -15760237.41409 -12280690.30308  21087113.23909  21087115.72908
 -13276909.41408 -10345645.06508  21611316.22608  21611319.58008
   4064853.73708   3167407.04107  24626069.49808  24626077.56607
  -5393553.85908  -4202755.22008  23622268.09208  23622272.48508
  -5644305.49008  -4398159.11408  24384308.93008  24384312.24508
 -27452326.69609 -21391414.05008  20193809.40609  20193811.27308
  -2630742.37708  -2049963.64808  24345939.82308  24345950.09008
  -6501879.10908  -5066388.90208  23983843.46108  23983847.32208
 93 04 14 20 50 00.0000000  0  8 02 19 16 11 26 27 18 31
 -15838567.17709 -12341726.39208  21072207.47509  21072209.98008
 -13077808.46608 -10190501.56908  21649203.93708  21649207.33908
   4287875.33108   3341189.54107  24668509.33208  24668517.73407
  -5115976.88908  -3986461.57508  23675089.38508  23675093.62808
  -5993335.45208  -4670130.36508  24317890.64808  24317893.88108
 -27476124.67309 -21409957.92308  20189280.83909  20189282.71908
  -2183912.25508  -1701786.00108  24430969.96508  24430980.63408
  -6111331.81008  -4762066.56508  24058162.28008  24058166.25808
 93 04 14 20 52 00.0000000  0  8 02 19 16 11 26 27 18 31
 -15913555.73509 -12400158.95108  21057937.59109  21057940.04408
 -12874611.99108 -10032166.75708  21687870.91708  21687874.44308
   4514148.01108   3517505.29407  24711568.26908  24711576.70107
  -4831234.05108  -3764584.15808  23729274.23708  23729278.61608
  -6338295.60908  -4938930.32308  24252246.74708  24252249.87608
 -27494568.08909 -21424329.39308  20185771.13809  20185773.05008
  -1736830.15608  -1353412.03808  24516048.18508  24516059.18108
  -5716990.02608  -4454787.48908  24133203.30608  24133207.29508
 93 04 14 20 54 00.0000000  0  8 02 19 16 11 26 27 18 31
 -15985764.82709 -12456425.69808  21044196.58809  21044198.94308
 -12667298.87208  -9870624.18708  21727321.49008  21727324.84308
   4743131.48308   3695933.34107  24755142.78108  24755151.25707
  -4539698.01108  -3537413.35608  23784751.74508  23784756.16908
  -6679386.90708  -5204715.59508  24187339.18308  24187342.24908
 -27507119.76209 -21434109.90508  20183382.62009  20183384.53608
  -1289777.35408  -1005060.95408  24601120.76008  24601132.23808
  -5319407.94208  -4144983.51208  24208860.81008  24208864.96708
 93 04 14 20 56 00.0000000  0  8 02 19 16 11 26 27 18 31
 -16054035.58909 -12509623.63208  21031205.06809  21031207.41508
 -12455050.19108  -9705235.73508  21767711.22408  21767714.60608
   4975211.40608   3876774.17607  24799306.59608  24799314.96907
  -4240981.60508  -3304647.45908  23841595.69408  23841600.07908
  -7015634.64508  -5466726.65208  24123353.32908  24123356.31208
 -27513797.69309 -21439313.47608  20182111.85509  20182113.68608
   -842600.12708   -656612.98207  24686216.98208  24686229.04107
  -4918305.89208  -3832436.71808  24285188.00508  24285192.29508
 93 04 14 20 58 00.0000000  0  8 02 19 16 11 26 27 18 31
 -16118689.43209 -12560003.18308  21018901.72809  21018904.13708
 -12237999.40608  -9536105.40108  21809014.73108  21809018.15908
   5210508.82408   4060122.14107  24844082.58608  24844091.49107
  -3935194.80508  -3066372.15808  23899784.95308  23899789.50208
  -7346949.96408  -5724894.24508  24060305.93308  24060308.85108
 -27514260.70609 -21439674.26108  20182023.70309  20182025.64908
   -395456.79607   -308191.50807  24771306.89107  24771319.43907
  -4513651.57308  -3517121.92507  24362191.45808  24362195.60207
 93 04 14 21 00 00.0000000  0  8 02 19 16 11 26 27 18 31
 -16179863.66609 -12607671.36508  21007260.70909  21007263.08308
 -12016374.79508  -9363411.03508  21851188.58808  21851192.08608
   5448509.85907   4245576.79307  24889373.28707  24889382.48607
  -3622526.52908  -2822734.66908  23959283.82208  23959288.39808
  -7673011.29308  -5978967.83008  23998258.27908  23998261.33808
 -27508428.80609 -21435129.92408  20183133.47209  20183135.35408
     51817.58307     40331.95607  24856421.85907  24856434.80107
  -4105442.44908  -3199037.14407  24439871.35208  24439875.40107
 93 04 14 21 02 00.0000000  0  8 02 19 16 11 26 27 18 31
 -16237857.17409 -12652861.05608  20996224.81909  20996227.20508
 -11790391.35308  -9187320.16808  21894191.92908  21894195.39108
   5688634.53607   4432686.17507  24935068.20907  24935077.44407
  -3303282.44108  -2573973.16708  24020034.18908  24020038.79908
  -7993787.45508  -6228923.11908  23937216.60008  23937219.56608
 -27496513.10809 -21425844.96608  20185401.01609  20185402.90908
    498543.26308    388427.83607  24941432.63408  24941446.01907
  -3694381.66208  -2878730.28707  24518093.79908  24518097.89107
 93 04 14 21 04 00.0000000  0  8 19 16 02 11 26 27 18 31
 -11559657.61208  -9007527.77708  21938099.06608  21938102.70708
   5930690.91107   4621300.76907  24981130.42307  24981139.81007
 -16292711.34109 -12695604.50208  20985786.25609  20985788.70708
  -2977800.44408  -2320350.97008  24081971.38508  24081976.16808
  -8309773.33008  -6475145.74908  23877086.39208  23877089.19308
 -27478307.00909 -21411658.39808  20188865.48109  20188867.38708
    944645.40707    736037.80407  25026324.56907  25026338.55107
  -3280675.31108  -2556361.95907  24596819.66908  24596823.98807
 93 04 14 21 06 00.0000000  0  8 19 16 02 11 26 27 18 31
 -11324410.86708  -8824218.75208  21982865.27208  21982868.84508
   6174709.81207   4811444.54207  25027566.21607  25027575.89607
 -16344256.47409 -12735769.47708  20975977.50109  20975979.87108
  -2646262.61708  -2062009.97808  24145060.94808  24145065.85608
  -8620492.83008  -6717264.72508  23817958.30008  23817961.18608
 -27453912.89509 -21392650.00308  20193507.47409  20193509.43808
   1389942.75007   1083020.53307  25111063.42307  25111078.04507
  -2864785.89908  -2232292.55907  24675961.05208  24675965.43107
 93 04 14 21 08 00.0000000  0  8 19 16 02 11 26 27 18 31
 -11084809.86008  -8637516.78508  22028459.85708  22028463.42308
   6420685.41608   5003112.96007  25074374.41008  25074384.66307
 -16392882.28309 -12773659.66308  20966724.33709  20966726.68908
  -2308839.25508  -1799082.85808  24209270.64608  24209275.51508
  -8925759.56008  -6955134.75508  23759867.74808  23759870.68408
 -27423070.86909 -21368617.26308  20199376.54209  20199378.48908
   1834479.67407   1429410.67807  25195657.68207  25195672.71707
  -2446272.77108  -1906178.73807  24755601.62908  24755606.20907
 93 04 14 21 10 00.0000000  0  8 19 16 02 11 26 27 18 31
 -10841259.28208  -8447737.25108  22074806.13708  22074809.76908
   6668441.59208   5196168.83007  25121521.84108  25121531.86707
 -16438337.38709 -12809079.17908  20958074.48209  20958076.80808
  -1965693.15008  -1531696.48108  24274569.48208  24274574.16808
  -9225333.29808  -7188568.68908  23702860.69008  23702863.49208
 -27385980.27609 -21339715.51908  20206434.71209  20206436.59508
   2277621.34707   1774713.71307  25279986.38807  25280001.87107
  -2025522.29108  -1578321.52207  24835668.00508  24835672.60507
 93 04 14 21 12 00.0000000  0  8 19 26 16 02 11 27 18 31
 -10592902.81308  -8254212.87008  22122066.90108  22122070.59708
  -9519323.55708  -7417651.86208  23646916.16908  23646918.89508
   6917217.55607   5390019.35007  25168862.97307  25168873.03107
 -16480646.23709 -12842047.07308  20950023.40909  20950025.63808
  -1617184.47208  -1260131.51808  24340888.63308  24340893.48108
 -27343003.13009 -21306226.85508  20214613.04509  20214614.88508
   2719410.69907   2118962.86507  25364058.00607  25364073.94107
  -1602849.59107  -1248966.47107  24916100.15307  24916104.79607
 93 04 14 21 14 00.0000000  0  8 19 26 16 02 11 27 18 31
 -10340279.08708  -8057363.38008  22170139.71008  22170143.49008
  -9807537.43908  -7642233.98908  23592070.77708  23592073.51108
   7167272.79907   5584866.75606  25216447.36507  25216457.72306
 -16520193.17209 -12872862.83408  20942497.85309  20942500.10608
  -1263265.01908   -984350.39208  24408237.47108  24408242.33508
 -27293299.82509 -21267497.01908  20224071.23109  20224073.15308
   3160051.45607   2462316.84207  25447910.95307  25447927.60807
  -1178445.24307   -918262.06207  24996861.69307  24996866.51407
 93 04 14 21 16 00.0000000  0  8 19 26 16 02 11 27 18 31
 -10083020.57508  -7856902.39408  22219094.47008  22219098.21508
 -10089215.58108  -7861723.36308  23538469.16108  23538471.97008
   7418532.00707   5780652.36106  25264261.07107  25264271.64406
 -16556401.28209 -12901076.90708  20935607.65809  20935609.95808
   -903725.73808   -704190.18108  24476655.79308  24476660.79308
 -27236938.23609 -21223578.90608  20234796.53709  20234798.43808
   3599645.76007   2804855.37407  25531564.81707  25531582.06507
   -751888.81307   -585880.64507  25078032.97207  25078037.66607
 93 04 14 21 18 00.0000000  0  7 19 02 11 26 27 18 31
  -9820287.57408  -7652175.57708  22269091.11308  22269094.90108
 -16588666.34309 -12926218.46908  20929467.79909  20929469.99008
   -538330.57308   -419466.90508  24546188.29208  24546193.36208
 -10363814.90308  -8075696.77408  23486214.53508  23486217.41508
 -27172927.35709 -21173700.29408  20246977.37209  20246979.28908
   4038134.62307   3146532.74007  25615008.31007  25615025.90707
   -322972.46907   -251660.26007  25159653.17107  25159657.86507
 93 04 14 21 20 00.0000000  0  8 19 15 02 11 26 27 18 31
  -9552779.60208  -7443727.98108  22319996.16108  22320000.03208
        -0.15018        -0.42818  23992651.15018  23992656.15418
 -16617973.41209 -12949055.09708  20923890.82109  20923893.01308
   -168016.33408   -130910.54308  24616656.83608  24616661.87408
 -10632147.60608  -8284787.10408  23435152.49408  23435155.32208
 -27102036.54809 -21118460.70408  20260467.38009  20260469.29008
   4475171.05107   3487078.55307  25698175.14507  25698193.35907
    107685.80807     83917.45507  25241604.68407  25241609.66107
 93 04 14 21 22 00.0000000  0  8 19 15 02 11 26 27 18 31
  -9281076.46608  -7232011.42708  22371699.86208  22371703.66708
   -128209.47408    -99903.36608  23968253.44708  23968258.40808
 -16644576.45309 -12969784.71108  20918828.30609  20918830.63608
    206701.16308    161076.94407  24687963.30708  24687968.38607
 -10894368.46108  -8489114.95508  23385253.63508  23385256.29008
 -27024782.32209 -21058262.62308  20275168.47009  20275170.34208
   4910216.59307   3826073.47907  25780962.77307  25780981.34007
    539562.07407    420444.21507  25323788.12907  25323793.13907
 93 04 14 21 24 00.0000000  0  6 19 15 11 26 02 27
  -9004827.85708  -7016752.96308  22424268.36408  22424272.28808
   -249128.25808   -194125.38408  23945242.97908  23945247.84708
    586186.58408    456779.68807  24760177.10708  24760182.18407
 -11149621.67808  -8688013.48008  23336680.34208  23336683.04708
 -16668007.05309 -12988042.30408  20914369.65109  20914371.85508
 -26940496.06109 -20992585.04208  20291207.61809  20291209.47908
 93 04 14 21 26 00.0000000  0  7 19 15 11 02 26 27 13
  -8724891.07208  -6798620.59408  22477538.74008  22477542.54408
   -363499.33308   -283245.35108  23923478.84108  23923483.48708
    969373.29408    755366.55907  24833095.25308  24833100.29807
 -16689064.12109 -13004450.39208  20910362.61709  20910364.82208
 -11398568.38108  -8881997.86708  23289307.37208  23289310.00808
 -26849990.63109 -20922061.34708  20308430.13809  20308432.13708
         0.32918        -0.43017  24006370.88318  24006380.67417
 93 04 14 21 28 00.0000000  0  7 15 11 26 02 27 13 19
   -470956.53808   -366977.92908  23903030.14408  23903034.75408
   1356308.87108   1056874.62207  24906726.77508  24906731.98807
 -11641123.22008  -9071001.61408  23243150.71508  23243153.35908
 -16707652.13809 -13018934.52008  20906825.39109  20906827.62208
 -26752995.67109 -20846480.88408  20326887.75209  20326889.66508
   -476575.14008   -371356.14207  23915680.22008  23915689.46207
  -8440965.74908  -6577380.29208  22531567.96908  22531571.96708
 93 04 14 21 30 00.0000000  0  7 15 11 26 02 27 13 19
   -571136.61008   -445040.11008  23883966.19308  23883970.96908
   1747042.75107   1361342.37507  24981081.06307  24981086.47007
 -11877101.96308  -9254881.12808  23198245.33508  23198248.10008
 -16723817.22109 -13031530.64108  20903749.14809  20903751.45608
 -26649243.86009 -20765635.34708  20346631.11009  20346632.96408
   -951634.50008   -741530.68707  23825278.26208  23825287.06707
  -8152766.26808  -6352809.52308  22586410.72608  22586414.84508
 93 04 14 21 32 00.0000000  0  7 15 11 26 02 27 13 19
   -664258.74808   -517602.61508  23866245.47308  23866250.05608
   2141046.04407   1668357.69707  25056057.66607  25056063.11007
 -12106094.95408  -9433317.16408  23154669.31608  23154672.12408
 -16737683.20609 -13042335.26208  20901110.53609  20901112.78708
 -26538891.11109 -20679646.22308  20367630.56609  20367632.51408
  -1425320.03408  -1110634.83607  23735137.69808  23735146.28207
  -7860705.42908  -6125229.89208  22641988.36108  22641992.45908
 93 04 14 21 34 00.0000000  0  7 15 11 26 02 27 13 19
   -749697.49508   -584178.08208  23849986.76608  23849991.49808
   2538639.42908   1978170.52407  25131717.44808  25131722.76607
 -12327860.18908  -9606121.16008  23112468.74708  23112471.43108
 -16748614.72809 -13050853.29608  20899030.40309  20899032.57808
 -26421444.80009 -20588129.64608  20389979.85509  20389981.82108
  -1896922.20208  -1478115.66007  23645393.80708  23645401.91607
  -7564291.65408  -5894258.37708  22698394.15408  22698398.33708
 93 04 14 21 36 00.0000000  0  7 15 11 26 02 27 13 19
   -827133.08708   -644517.31308  23835251.36508  23835255.85908
   2939844.16707   2290797.37607  25208064.35907  25208069.73407
 -12541962.31308  -9772953.91808  23071726.41608  23071729.06808
 -16756551.73209 -13057037.95708  20897520.07809  20897522.28008
 -26297089.94108 -20491229.77608  20413643.77008  20413645.74008
  -2366033.33708  -1843655.52407  23556123.97908  23556131.67507
  -7263530.25508  -5659899.13608  22755627.31708  22755631.72608
 93 04 14 21 38 00.0000000  0  7 15 11 26 02 27 13 19
   -896379.29108   -698475.19608  23822074.05408  23822078.46708
   3344554.81007   2606156.10507  25285078.33907  25285083.85407
 -12748218.71208  -9933673.16308  23032477.10608  23032479.77208
 -16761461.50209 -13060863.72308  20896585.60209  20896587.86908
 -26165269.45908 -20388512.54708  20438728.42708  20438730.37008
  -2832374.62908  -2207037.16307  23467381.31308  23467388.70907
  -6958261.35008  -5422027.56608  22813718.24208  22813722.70808
 93 04 14 21 40 00.0000000  0  6 15 26 13 02 27 19
   -957785.39308   -746323.92708  23810388.63308  23810393.20708
 -12947290.64608 -10088794.13708  22994595.14308  22994597.69708
  -3296196.98608  -2568456.07607  23379118.00808  23379125.19307
 -16763904.04809 -13062766.97808  20896120.85309  20896123.01208
 -26026502.36808 -20280382.39708  20465134.99008  20465137.03208
  -6648861.73908  -5180937.27908  22872595.35408  22872599.83808
 93 04 14 21 42 00.0000000  0  6 15 26 13 02 27 19
  -1010629.26408   -787500.84708  23800332.69308  23800337.18608
 -13138431.51308 -10237735.06208  22958222.21408  22958224.73308
  -3756675.17008  -2927269.21807  23291491.29008  23291498.02007
 -16763508.02809 -13062458.36408  20896196.18109  20896198.29608
 -25880088.19209 -20166293.49008  20492996.76209  20492998.72408
  -6334748.45908  -4936174.02108  22932369.24008  22932373.90708
 93 04 14 21 44 00.0000000  0  6 15 26 13 02 27 19
  -1055496.84208   -822462.47908  23791794.50008  23791798.96708
 -13321885.29608 -10380686.03308  22923312.01708  22923314.55208
  -4214285.32408  -3283847.67307  23204410.24308  23204416.78307
 -16760384.94909 -13060024.77908  20896790.43609  20896792.61908
 -25726836.80808 -20046876.91008  20522159.55808  20522161.50408
  -6016809.22508  -4688429.50608  22992871.41908  22992876.05908
 93 04 14 21 46 00.0000000  0  7 15 26 11 02 27 13 19
  -1092026.57308   -850927.07608  23784843.06808  23784847.74008
 -13497198.32108 -10517293.55408  22889950.98408  22889953.61108
        -0.38517        -0.04617  25598624.94717  25598630.45917
 -16754239.33709 -13055235.98808  20897959.94009  20897962.12708
 -25566541.03108 -19921971.19608  20552662.92708  20552664.90008
  -4668553.37008  -3637821.94707  23117965.22208  23117971.70907
  -5694663.77908  -4437407.42908  23054173.81208  23054178.70608
 93 04 14 21 48 00.0000000  0  7 15 26 11 13 02 27 19
  -1120188.91708   -872871.63608  23779484.10408  23779488.41608
 -13664495.94808 -10647655.31108  22858115.26408  22858117.87008
    418201.64107    325871.46006  25678206.32207  25678211.86106
  -5119329.41108  -3989075.20308  23032184.82908  23032191.17208
 -16745716.54909 -13048594.84808  20899581.79409  20899583.90808
 -25399049.84708 -19791458.65108  20584535.48908  20584537.48008
  -5368334.38908  -4183125.15508  23116272.59808  23116277.33108
 93 04 14 21 50 00.0000000  0  6 15 26 13 19 02 27
  -1140280.44408   -888527.31908  23775660.85908  23775664.97308
 -13824349.27508 -10772216.32808  22827696.27008  22827698.71708
  -5566785.21408  -4337741.26508  22947036.27108  22947042.34908
  -5038419.24108  -3926048.79008  23179053.72508  23179058.44408
 -16734992.51409 -13040238.45208  20901622.46209  20901624.63608
 -25224694.37408 -19655597.30708  20617714.21708  20617716.23108
 93 04 14 21 52 00.0000000  0  6 15 26 13 19 02 27
  -1151452.80008   -897232.96208  23773534.57808  23773538.93508
 -13975400.01908 -10889918.19708  22798952.19308  22798954.70808
  -6009946.33508  -4683060.87108  22862704.88308  22862710.78608
  -4704343.12308  -3665730.12408  23242626.61508  23242631.49708
 -16720868.90509 -13029233.02208  20904310.10309  20904312.31708
 -25042813.90708 -19513872.33808  20652324.97708  20652327.00508
 93 04 14 21 54 00.0000000  0  6 15 26 13 19 02 27
  -1154182.69008   -899360.12008  23773015.12008  23773019.49608
 -14118580.12408 -11001487.08208  22771705.87108  22771708.53308
  -6449152.90208  -5025299.05808  22779126.04508  22779131.89908
  -4366650.25108  -3402593.18808  23306887.79108  23306892.70508
 -16704507.06909 -13016483.52208  20907423.74709  20907425.83108
 -24854043.38008 -19366778.50408  20688246.98008  20688249.03308
 93 04 14 21 56 00.0000000  0  6 15 26 13 19 02 27
  -1148020.63208   -894558.46108  23774187.75108  23774191.70608
 -14253374.35808 -11106521.54608  22746055.34308  22746057.95108
  -6883817.09008  -5363997.76408  22696411.70308  22696417.41408
  -4024766.52808  -3136190.68508  23371946.45508  23371951.43808
 -16685447.19809 -13001631.66808  20911050.71409  20911052.81308
 -24657919.64808 -19213954.90108  20725568.10608  20725570.25308
 93 04 14 21 58 00.0000000  0  6 15 26 13 19 02 27
  -1132960.87008   -882823.54908  23777053.41608  23777057.63808
 -14379346.77908 -11204681.88908  22722083.69408  22722086.21008
  -7313787.66508  -5699039.15008  22614590.68808  22614596.19708
  -3678615.77108  -2866463.23608  23437817.00508  23437822.12208
 -16663444.53309 -12984486.73808  20915237.67209  20915239.79008
 -24454258.67408 -19055258.12308  20764323.61908  20764325.66508
 93 04 14 22 00 00.0000000  0  6 15 26 13 19 02 27
  -1109289.59308   -864378.39408  23781557.78308  23781562.21908
 -14497149.57508 -11296476.28008  22699666.67608  22699669.11308
  -7739204.29908  -6030532.03608  22533636.16308  22533641.51408
  -3328870.68108  -2593935.02008  23504371.48608  23504376.87708
 -16638999.99209 -12965439.06008  20919889.38009  20919891.41308
 -24243597.23908 -18891106.44508  20804411.22008  20804413.28908
 93 04 14 22 02 00.0000000  0  6 15 26 13 19 02 27
  -1077048.22908   -839255.27408  23787693.32108  23787697.62908
 -14606641.38308 -11381794.56808  22678831.08908  22678833.63008
  -8159951.78508  -6358386.63208  22453570.20108  22453575.24408
  -2975836.16408  -2318843.61608  23571552.18208  23571557.61608
 -16612026.66609 -12944420.91008  20925022.05609  20925024.25008
 -24026361.57508 -18721831.97908  20845749.85308  20845752.00208
 93 04 14 22 04 00.0000000  0  6 15 26 13 19 02 27
  -1036010.55308   -807277.85508  23795502.70108  23795506.75608
 -14707416.00908 -11460320.24208  22659654.26708  22659656.72908
  -8575648.42308  -6682305.55108  22374465.33608  22374470.22008
  -2619213.57208  -2040956.33808  23639415.54608  23639421.07508
 -16582645.31909 -12921526.38008  20930613.30309  20930615.42908
 -23801969.28208 -18546980.92808  20888450.27808  20888452.49508
 93 04 14 22 06 00.0000000  0  6 26 15 13 19 02 27
 -14799763.99408 -11532279.70408  22642081.07108  22642083.57508
   -986134.46608   -768413.36408  23804993.52508  23804997.69308
  -8986089.77908  -7002129.46008  22296360.55508  22296365.36408
  -2258873.61008  -1760172.40708  23707986.18608  23707991.93508
 -16550644.91709 -12896591.03308  20936702.75509  20936704.90708
 -23570128.26308 -18366325.69508  20932568.24408  20932570.50508
 93 04 14 22 08 00.0000000  0  6 27 26 15 13 19 02
 -23331725.30208 -18180557.25008  20977934.94108  20977937.13208
 -14883813.58208 -11597772.88808  22626086.92208  22626089.38608
   -927832.85408   -722983.53408  23816087.92708  23816092.16308
  -9391522.01908  -7318050.18008  22219209.00108  22219213.56608
  -1895494.78508  -1477020.53308  23777135.19608  23777140.97708
 -16516406.38909 -12869911.69308  20943218.13009  20943220.28508
 93 04 14 22 10 00.0000000  0  6 27 26 13 15 19 02
 -23086903.72508 -17989787.28808  21024522.98308  21024525.23908
 -14959818.94508 -11656997.86008  22611623.59608  22611626.04708
  -9791652.49008  -7629839.66508  22143066.34808  22143070.75708
   -860984.71808   -670894.08608  23828808.88908  23828813.01808
  -1529198.09008  -1191595.01708  23846839.68808  23846845.29408
 -16480020.35709 -12841558.95508  20950142.20909  20950144.36508
 93 04 14 22 12 00.0000000  0  6 27 26 13 15 19 02
 -22834608.34608 -17793193.58108  21072533.25208  21072535.64208
 -15026664.79808 -11709085.53408  22598903.26608  22598905.78408
 -10185359.12608  -7936623.58308  22068146.06108  22068150.41308
   -784638.59908   -611403.63908  23843336.97408  23843341.11008
  -1158896.75908   -903048.97008  23917305.91608  23917311.75508
 -16440616.16709 -12810854.40108  20957640.64509  20957642.74108
 93 04 14 22 14 00.0000000  0  6 27 26 13 15 19 02
 -22575394.82308 -17591209.11808  21121860.00108  21121862.38408
 -15084626.84608 -11754250.74608  22587873.34908  22587875.90208
 -10573048.18108  -8238718.51208  21994370.93508  21994375.28808
   -699380.94008   -544969.14208  23859560.95908  23859565.33808
   -785176.77408   -611839.03108  23988422.61708  23988428.76008
 -16398364.41509 -12777930.97008  20965680.91209  20965683.03708
 93 04 14 22 16 00.0000000  0  6 26 27 13 15 19 02
 -15134623.62108 -11793209.24708  22578359.30408  22578361.80208
 -22309875.71508 -17384311.22808  21172386.83808  21172389.08308
 -10955180.54208  -8536483.58508  21921653.31808  21921657.59108
   -605853.97508   -472091.07508  23877358.54108  23877362.86508
   -408977.37508   -318697.08008  24060011.36808  24060017.74708
 -16353948.80409 -12743321.43008  20974132.88909  20974135.05408
 93 04 14 22 18 00.0000000  0  6 02 15 26 27 13 19
 -16306943.74909 -12706694.15308  20983077.67709  20983079.84608
   -503671.34108   -392468.32708  23896803.29808  23896807.85208
 -15176243.84908 -11825640.57508  22570439.31308  22570441.67708
 -22037575.89908 -17172129.66508  21224203.77408  21224206.11608
 -11331184.90708  -8829473.64808  21850101.74508  21850105.89708
    -29916.97708    -23325.79608  24132144.48008  24132150.83208
 93 04 14 22 20 00.0000000  0  6 02 15 26 27 13 19
 -16257092.77309 -12667849.26008  20992563.98509  20992566.17508
   -392245.17908   -305642.82008  23918007.07808  23918011.60608
 -15208625.69708 -11850873.17008  22564277.11908  22564279.71908
 -21758315.84508 -16954524.52808  21277345.22808  21277347.70508
 -11700287.39008  -9117085.61908  21779863.58908  21779867.65908
    352622.26008    274756.27708  24204939.72308  24204946.06508
 93 04 14 22 22 00.0000000  0  6 02 15 26 27 13 19
 -16204586.78209 -12626935.52108  21002555.52209  21002557.77908
   -271721.49308   -211728.33308  23940941.94108  23940946.28308
 -15231755.00508 -11868896.00708  22559875.72408  22559878.33808
 -21472415.00408 -16731744.74208  21331750.43708  21331752.88708
 -12062441.12308  -9399283.00608  21710947.81108  21710951.86408
    738435.19508    575389.28208  24278357.87108  24278364.25708
 93 04 14 22 24 00.0000000  0  6 02 15 26 27 13 19
 -16149352.88909 -12583896.14708  21013066.23709  21013068.42908
   -142553.21508   -111077.78808  23965522.01508  23965526.22908
 -15246782.04308 -11880605.39708  22557016.22708  22557018.80208
 -21179695.57808 -16503651.78308  21387453.14408  21387455.51608
 -12417908.10408  -9676269.95308  21643304.50708  21643308.42708
   1127048.38008    878204.28708  24352308.64908  24352315.43008
 93 04 14 22 26 00.0000000  0  6 02 26 15 27 13 19
 -16091812.93609 -12539059.85408  21024015.77309  21024017.97508
 -15253486.09308 -11885829.34508  22555740.60608  22555743.08908
     -4974.72508     -3873.86108  23991702.31508  23991706.77808
 -20880855.80208 -16270789.73308  21444320.53108  21444322.92108
 -12766726.80708  -9948076.45008  21576926.31208  21576930.06708
   1518063.95508   1182891.29508  24426716.81408  24426723.79308
 93 04 14 22 28 00.0000000  0  6 02 15 26 27 13 19
 -16032006.51709 -12492457.48508  21035396.59109  21035398.78208
    141223.60808    110046.80808  24019523.15308  24019527.53508
 -15251467.04908 -11884256.08708  22556124.72508  22556127.27608
 -20575651.39108 -16032968.24408  21502399.11908  21502401.61508
 -13108487.70908 -10214383.37508  21511891.17208  21511894.85808
   1911725.25708   1489639.92008  24501628.51108  24501635.39608
 93 04 14 22 30 00.0000000  0  6 02 26 27 15 13 19
 -15970439.75909 -12444483.40908  21047112.33409  21047114.54208
 -15241660.38008 -11876614.54708  22557990.86108  22557993.49108
 -20264889.40408 -15790816.18408  21561535.36508  21561537.80508
    295127.35408    229971.71907  24048810.05208  24048814.39307
 -13443906.81408 -10475748.64708  21448062.73508  21448066.44008
   2307297.23608   1797877.44408  24576903.56308  24576910.63508
 93 04 14 22 32 00.0000000  0  6 02 26 27 15 13 19
 -15905959.24409 -12394238.85508  21059382.53809  21059384.77008
 -15223513.71708 -11862474.30308  22561444.02708  22561446.55808
 -19947917.46008 -15543825.19808  21621853.16808  21621855.66208
    457483.80308    356483.17707  24079705.46408  24079709.77107
 -13772034.01008 -10731431.95808  21385622.09908  21385625.71308
   2705080.50108   2107838.03708  24652599.35608  24652606.64208
 93 04 14 22 34 00.0000000  0  6 02 26 15 27 13 19
 -15838673.28809 -12341808.25108  21072186.69109  21072188.88108
 -15197053.26208 -11841855.79308  22566479.29208  22566481.87208
    628516.77908    489755.52108  24112252.31408  24112256.55108
 -19624348.68608 -15291693.81208  21683426.30408  21683428.90408
 -14092443.95108 -10981101.83808  21324649.95108  21324653.54608
   3105311.75908   2419706.13308  24728761.23308  24728768.57008
 93 04 14 22 36 00.0000000  0  6 02 26 15 27 13 19
 -15768701.15409 -12287284.53708  21085501.95609  21085504.15708
 -15162163.19408 -11814668.76508  22573118.72008  22573121.31508
    807955.61708    629577.86808  24146398.43408  24146402.67108
 -19295167.97208 -15035189.49608  21746067.45808  21746070.03508
 -14405204.25108 -11224810.94008  21265133.51308  21265136.99308
   3507912.24608   2733420.35908  24805374.13208  24805381.43808
 93 04 14 22 38 00.0000000  0  6 02 26 15 27 13 19
 -15696327.46909 -12230889.50608  21099274.22709  21099276.51508
 -15118966.99408 -11781009.43108  22581338.75408  22581341.26808
    995514.55908    775727.55907  24182089.73808  24182094.00407
 -18960099.00408 -14774096.94008  21809829.08908  21809831.70008
 -14710395.16108 -11462621.84208  21207057.41208  21207060.91708
   3912536.87108   3048711.82408  24882371.91208  24882379.44408
 93 04 14 22 40 00.0000000  0  6 02 26 15 27 13 19
 -15621832.10009 -12172841.20608  21113450.26209  21113452.44108
 -15067898.64808 -11741215.97008  22591056.59008  22591059.23308
   1190959.40008    928022.11407  24219281.35708  24219286.02607
 -18619161.62108 -14508431.59208  21874707.41308  21874710.08608
 -15008043.45508 -11694555.38508  21150416.76408  21150420.04508
   4318805.11008   3365283.97407  24959682.47908  24959690.22307
 93 04 14 22 42 00.0000000  0  6 02 26 15 27 13 19
 -15544711.85009 -12112747.53808  21128125.79209  21128127.99708
 -15008866.49908 -11695216.91308  22602290.15208  22602292.74808
   1394150.85208   1086352.97207  24257947.66908  24257952.27307
 -18273216.86108 -14238864.39908  21940538.55108  21940541.31708
 -15298085.42908 -11920561.92208  21095223.33108  21095226.69208
   4726690.97808   3683116.61307  25037301.03208  25037308.85007
 93 04 14 22 44 00.0000000  0  6 02 26 27 15 13 19
 -15465288.10409 -12050858.94708  21143239.58709  21143241.83708
 -14942285.59208 -11643335.69808  22614960.17608  22614962.70608
 -17921998.49908 -13965187.89808  22007373.28108  22007376.09308
   1604873.09408   1250552.04407  24298047.06808  24298051.61207
 -15580530.49308 -12140648.78808  21041475.71508  21041479.03308
   5135940.84608   4002012.05007  25115179.28108  25115187.06207
 93 04 14 22 46 00.0000000  0  6 02 26 27 15 19 13
 -15383043.90709 -11986772.60208  21158890.19809  21158892.48308
 -14867434.13708 -11585009.92908  22629203.85108  22629206.53808
 -17564706.84608 -13686778.97808  22075363.75808  22075366.66808
   1823769.69608   1421120.73507  24339701.81208  24339706.33307
   5547286.37808   4322540.41207  25193456.05008  25193464.03707
 -15854530.77608 -12354155.31908  20989335.09208  20989338.30808
 93 04 14 22 48 00.0000000  0  6 02 26 27 15 19 13
 -15298245.30508 -11920695.81308  21175026.85008  21175029.14008
 -14784899.29308 -11520697.12808  22644909.81908  22644912.47508
 -17202476.04308 -13404521.38908  22144294.17008  22144297.00108
   2050201.38908   1597560.90707  24382790.39208  24382795.01507
   5959879.29408   4644040.70407  25271970.36908  25271978.54107
 -16120519.82508 -12561419.32808  20938718.86508  20938722.07908
 93 04 14 22 50 00.0000000  0  5 02 26 27 15 13
 -15210747.76108 -11852515.94508  21191677.07308  21191679.40308
 -14694866.32808 -11450541.65308  22662042.53108  22662045.14908
 -16834749.75508 -13117981.60808  22214270.35008  22214273.07508
   2284406.02908   1780057.87207  24427358.15308  24427362.76807
 -16378053.76108 -12762094.94408  20889711.64908  20889714.87908
 93 04 14 22 52 00.0000000  0  5 02 26 27 15 13
 -15119946.18608 -11781761.49708  21208956.08308  21208958.40308
 -14596427.83308 -11373836.40108  22680774.80208  22680777.49408
 -16461348.06008 -12827019.43008  22285326.25808  22285329.21608
   2526699.77308   1968858.02007  24473465.18008  24473469.91107
 -16626616.10908 -12955779.73208  20842411.67308  20842414.83308
 93 04 14 22 54 00.0000000  0  5 02 26 27 15 13
 -15026700.19108 -11709102.30508  21226700.13408  21226702.47408
 -14490619.32208 -11291388.26608  22700909.45008  22700912.22208
 -16083219.33408 -12532373.87408  22357281.84608  22357284.94108
   2776001.90908   2163119.24707  24520905.96208  24520910.80007
 -16867086.21008 -13143158.86808  20796651.58408  20796654.76108
 93 04 14 22 56 00.0000000  0  5 02 26 27 15 13
 -14931177.27308 -11634668.86308  21244877.66708  21244879.91208
 -14377913.96708 -11203565.97208  22722356.67708  22722359.32308
 -15700634.78908 -12234256.26108  22430085.68308  22430088.60808
   3032242.42608   2362787.00507  24569667.11208  24569671.92607
 -17099334.48308 -13324131.37408  20752456.07908  20752459.18408
 93 04 14 22 58 00.0000000  0  6 02 26 27 15 24 13
 -14833089.68008 -11558236.98908  21263543.10008  21263545.36808
 -14257980.24508 -11110111.20008  22745179.31808  22745182.01708
 -15313463.22808 -11932564.35508  22503761.98908  22503765.05908
   3295324.94908   2567786.23807  24619730.10508  24619734.90907
        -0.36817         0.42817  25259129.48317  25259140.67217
 -17323255.38709 -13498615.04308  20709845.22909  20709848.26408
